Wetterdaten: Dienstag, 04.03.2014
Datum Zeit Temp. Aussen +5cm Feuchte Auss Luftdruck Regen Sonnenschein Regendauer UV Solar Windben
04.03.2014 00:00 4,4 C 2,8 C 81 % 995,4 hPa 0,0 l/m 0 min 0 min 0,0 UV-I 0 W/m 18,0 km/h (3 Bft)
04.03.2014 00:02 4,4 C 2,8 C 81 % 995,4 hPa 0,0 l/m 0 min 0 min 0,0 UV-I 0 W/m 12,9 km/h (3 Bft)
04.03.2014 00:06 4,4 C 2,8 C 82 % 995,5 hPa 0,0 l/m 0 min 0 min 0,0 UV-I 0 W/m 10,3 km/h (2 Bft)
04.03.2014 00:08 4,4 C 2,8 C 82 % 995,5 hPa 0,0 l/m 0 min 0 min 0,0 UV-I 0 W/m 7,7 km/h (2 Bft)
04.03.2014 00:10 4,4 C 2,8 C 82 % 995,5 hPa 0,0 l/m 0 min 0 min 0,0 UV-I 0 W/m 5,1 km/h (1 Bft)
04.03.2014 00:12 4,4 C 2,8 C 82 % 995,5 hPa 0,0 l/m 0 min 0 min 0,0 UV-I 0 W/m 5,1 km/h (1 Bft)
04.03.2014 00:14 4,4 C 2,8 C 82 % 995,5 hPa 0,0 l/m 0 min 0 min 0,0 UV-I 0 W/m 0,0 km/h (0 Bft)
04.03.2014 00:16 4,4 C 2,8 C 83 % 995,6 hPa 0,0 l/m 0 min 0 min 0,0 UV-I 0 W/m 7,7 km/h (2 Bft)
04.03.2014 00:18 4,4 C 2,8 C 83 % 995,7 hPa 0,0 l/m 0 min 0 min 0,0 UV-I 0 W/m 7,7 km/h (2 Bft)
04.03.2014 00:20 4,4 C 2,8 C 83 % 995,6 hPa 0,0 l/m 0 min 0 min 0,0 UV-I 0 W/m 5,1 km/h (1 Bft)
04.03.2014 00:22 4,4 C 2,2 C 83 % 995,6 hPa 0,0 l/m 0 min 0 min 0,0 UV-I 0 W/m 5,1 km/h (1 Bft)
04.03.2014 00:24 4,3 C 2,2 C 83 % 995,7 hPa 0,0 l/m 0 min 0 min 0,0 UV-I 0 W/m 7,7 km/h (2 Bft)
04.03.2014 00:26 4,2 C 2,2 C 83 % 995,8 hPa 0,0 l/m 0 min 0 min 0,0 UV-I 0 W/m 0,0 km/h (0 Bft)
04.03.2014 00:28 4,2 C 2,2 C 83 % 995,9 hPa 0,0 l/m 0 min 0 min 0,0 UV-I 0 W/m 7,7 km/h (2 Bft)
04.03.2014 00:30 4,0 C 2,2 C 84 % 996,0 hPa 0,0 l/m 0 min 0 min 0,0 UV-I 0 W/m 0,0 km/h (0 Bft)
04.03.2014 00:32 3,9 C 2,2 C 84 % 996,0 hPa 0,0 l/m 0 min 0 min 0,0 UV-I 0 W/m 10,3 km/h (2 Bft)
04.03.2014 00:34 3,8 C 2,2 C 84 % 996,0 hPa 0,0 l/m 0 min 0 min 0,0 UV-I 0 W/m 7,7 km/h (2 Bft)
04.03.2014 00:36 3,8 C 2,2 C 85 % 996,1 hPa 0,0 l/m 0 min 0 min 0,0 UV-I 0 W/m 10,3 km/h (2 Bft)
04.03.2014 00:38 3,7 C 2,2 C 85 % 996,0 hPa 0,0 l/m 0 min 0 min 0,0 UV-I 0 W/m 10,3 km/h (2 Bft)
04.03.2014 00:40 3,7 C 2,2 C 85 % 996,1 hPa 0,0 l/m 0 min 0 min 0,0 UV-I 0 W/m 7,7 km/h (2 Bft)
04.03.2014 00:42 3,7 C 1,7 C 86 % 996,0 hPa 0,0 l/m 0 min 0 min 0,0 UV-I 0 W/m 2,6 km/h (1 Bft)
04.03.2014 00:44 3,6 C 1,7 C 86 % 996,1 hPa 0,0 l/m 0 min 0 min 0,0 UV-I 0 W/m 7,7 km/h (2 Bft)
04.03.2014 00:46 3,6 C 1,7 C 86 % 996,2 hPa 0,0 l/m 0 min 0 min 0,0 UV-I 0 W/m 7,7 km/h (2 Bft)
04.03.2014 00:48 3,6 C 1,7 C 86 % 996,2 hPa 0,0 l/m 0 min 0 min 0,0 UV-I 0 W/m 5,1 km/h (1 Bft)
04.03.2014 00:50 3,5 C 1,7 C 87 % 996,2 hPa 0,0 l/m 0 min 0 min 0,0 UV-I 0 W/m 0,0 km/h (0 Bft)
04.03.2014 00:52 3,4 C 1,7 C 87 % 996,2 hPa 0,0 l/m 0 min 0 min 0,0 UV-I 0 W/m 0,0 km/h (0 Bft)
04.03.2014 00:54 3,4 C 1,7 C 87 % 996,2 hPa 0,0 l/m 0 min 0 min 0,0 UV-I 0 W/m 0,0 km/h (0 Bft)
04.03.2014 00:56 3,4 C 1,7 C 87 % 996,2 hPa 0,0 l/m 0 min 0 min 0,0 UV-I 0 W/m 0,0 km/h (0 Bft)
04.03.2014 00:58 3,3 C 1,7 C 87 % 996,2 hPa 0,0 l/m 0 min 0 min 0,0 UV-I 0 W/m 0,0 km/h (0 Bft)
04.03.2014 01:00 3,3 C 1,7 C 87 % 996,2 hPa 0,0 l/m 0 min 0 min 0,0 UV-I 0 W/m 0,0 km/h (0 Bft)
04.03.2014 01:02 3,3 C 1,7 C 87 % 996,3 hPa 0,0 l/m 0 min 0 min 0,0 UV-I 0 W/m 7,7 km/h (2 Bft)
04.03.2014 01:04 3,2 C 1,7 C 88 % 996,3 hPa 0,0 l/m 0 min 0 min 0,0 UV-I 0 W/m 0,0 km/h (0 Bft)
04.03.2014 01:06 3,2 C 1,7 C 88 % 996,3 hPa 0,0 l/m 0 min 0 min 0,0 UV-I 0 W/m 0,0 km/h (0 Bft)
04.03.2014 01:08 3,3 C 1,7 C 88 % 996,3 hPa 0,0 l/m 0 min 0 min 0,0 UV-I 0 W/m 0,0 km/h (0 Bft)
04.03.2014 01:10 3,3 C 1,7 C 88 % 996,4 hPa 0,0 l/m 0 min 0 min 0,0 UV-I 0 W/m 2,6 km/h (1 Bft)
04.03.2014 01:12 3,3 C 1,7 C 88 % 996,4 hPa 0,0 l/m 0 min 0 min 0,0 UV-I 0 W/m 0,0 km/h (0 Bft)
04.03.2014 01:14 3,3 C 1,7 C 89 % 996,4 hPa 0,0 l/m 0 min 0 min 0,0 UV-I 0 W/m 0,0 km/h (0 Bft)
04.03.2014 01:16 3,3 C 1,7 C 89 % 996,5 hPa 0,0 l/m 0 min 0 min 0,0 UV-I 0 W/m 0,0 km/h (0 Bft)
04.03.2014 01:18 3,2 C 1,7 C 89 % 996,5 hPa 0,0 l/m 0 min 0 min 0,0 UV-I 0 W/m 2,6 km/h (1 Bft)
04.03.2014 01:20 3,2 C 1,1 C 88 % 996,5 hPa 0,0 l/m 0 min 0 min 0,0 UV-I 0 W/m 0,0 km/h (0 Bft)
04.03.2014 01:22 3,1 C 1,1 C 88 % 996,6 hPa 0,0 l/m 0 min 0 min 0,0 UV-I 0 W/m 0,0 km/h (0 Bft)
04.03.2014 01:24 3,1 C 1,1 C 88 % 996,6 hPa 0,0 l/m 0 min 0 min 0,0 UV-I 0 W/m 0,0 km/h (0 Bft)
04.03.2014 01:26 3,0 C 1,1 C 89 % 996,7 hPa 0,0 l/m 0 min 0 min 0,0 UV-I 0 W/m 0,0 km/h (0 Bft)
04.03.2014 01:28 2,9 C 1,1 C 89 % 996,7 hPa 0,0 l/m 0 min 0 min 0,0 UV-I 0 W/m 2,6 km/h (1 Bft)
04.03.2014 01:30 2,9 C 1,1 C 89 % 996,7 hPa 0,0 l/m 0 min 0 min 0,0 UV-I 0 W/m 2,6 km/h (1 Bft)
04.03.2014 01:32 2,9 C 1,1 C 89 % 996,7 hPa 0,0 l/m 0 min 0 min 0,0 UV-I 0 W/m 5,1 km/h (1 Bft)
04.03.2014 01:34 2,9 C 1,1 C 89 % 996,7 hPa 0,0 l/m 0 min 0 min 0,0 UV-I 0 W/m 5,1 km/h (1 Bft)
04.03.2014 01:36 2,9 C 1,1 C 89 % 996,7 hPa 0,0 l/m 0 min 0 min 0,0 UV-I 0 W/m 2,6 km/h (1 Bft)
04.03.2014 01:38 2,9 C 1,1 C 90 % 996,8 hPa 0,0 l/m 0 min 0 min 0,0 UV-I 0 W/m 2,6 km/h (1 Bft)
04.03.2014 01:40 2,9 C 1,1 C 90 % 996,8 hPa 0,0 l/m 0 min 0 min 0,0 UV-I 0 W/m 0,0 km/h (0 Bft)
04.03.2014 01:42 2,9 C 1,1 C 90 % 996,8 hPa 0,0 l/m 0 min 0 min 0,0 UV-I 0 W/m 0,0 km/h (0 Bft)
04.03.2014 01:44 2,9 C 1,1 C 90 % 996,7 hPa 0,0 l/m 0 min 0 min 0,0 UV-I 0 W/m 0,0 km/h (0 Bft)
04.03.2014 01:46 2,8 C 1,1 C 89 % 996,8 hPa 0,0 l/m 0 min 0 min 0,0 UV-I 0 W/m 0,0 km/h (0 Bft)
04.03.2014 01:48 2,8 C 1,1 C 90 % 996,8 hPa 0,0 l/m 0 min 0 min 0,0 UV-I 0 W/m 0,0 km/h (0 Bft)
04.03.2014 01:50 2,8 C 1,1 C 90 % 996,8 hPa 0,0 l/m 0 min 0 min 0,0 UV-I 0 W/m 0,0 km/h (0 Bft)
04.03.2014 01:52 2,7 C 1,1 C 90 % 996,8 hPa 0,0 l/m 0 min 0 min 0,0 UV-I 0 W/m 0,0 km/h (0 Bft)
04.03.2014 01:54 2,7 C 1,1 C 90 % 996,9 hPa 0,0 l/m 0 min 0 min 0,0 UV-I 0 W/m 0,0 km/h (0 Bft)
04.03.2014 01:56 2,7 C 1,1 C 90 % 996,9 hPa 0,0 l/m 0 min 0 min 0,0 UV-I 0 W/m 2,6 km/h (1 Bft)
04.03.2014 01:58 2,6 C 1,1 C 90 % 996,9 hPa 0,0 l/m 0 min 0 min 0,0 UV-I 0 W/m 5,1 km/h (1 Bft)
04.03.2014 02:00 2,6 C 1,1 C 90 % 996,9 hPa 0,0 l/m 0 min 0 min 0,0 UV-I 0 W/m 5,1 km/h (1 Bft)
04.03.2014 02:02 2,6 C 1,1 C 90 % 996,9 hPa 0,0 l/m 0 min 0 min 0,0 UV-I 0 W/m 2,6 km/h (1 Bft)
04.03.2014 02:04 2,6 C 1,1 C 90 % 996,9 hPa 0,0 l/m 0 min 0 min 0,0 UV-I 0 W/m 5,1 km/h (1 Bft)
04.03.2014 02:06 2,6 C 1,1 C 90 % 996,9 hPa 0,0 l/m 0 min 0 min 0,0 UV-I 0 W/m 0,0 km/h (0 Bft)
04.03.2014 02:08 2,6 C 1,1 C 91 % 996,9 hPa 0,0 l/m 0 min 0 min 0,0 UV-I 0 W/m 2,6 km/h (1 Bft)
04.03.2014 02:10 2,7 C 1,1 C 91 % 996,9 hPa 0,0 l/m 0 min 0 min 0,0 UV-I 0 W/m 0,0 km/h (0 Bft)
04.03.2014 02:12 2,7 C 1,1 C 91 % 997,0 hPa 0,0 l/m 0 min 0 min 0,0 UV-I 0 W/m 0,0 km/h (0 Bft)
04.03.2014 02:14 2,6 C 1,1 C 91 % 997,0 hPa 0,0 l/m 0 min 0 min 0,0 UV-I 0 W/m 5,1 km/h (1 Bft)
04.03.2014 02:16 2,6 C 1,1 C 91 % 997,0 hPa 0,0 l/m 0 min 0 min 0,0 UV-I 0 W/m 0,0 km/h (0 Bft)
04.03.2014 02:18 2,6 C 1,1 C 91 % 996,9 hPa 0,0 l/m 0 min 0 min 0,0 UV-I 0 W/m 2,6 km/h (1 Bft)
04.03.2014 02:20 2,6 C 1,1 C 91 % 997,0 hPa 0,0 l/m 0 min 0 min 0,0 UV-I 0 W/m 7,7 km/h (2 Bft)
04.03.2014 02:22 2,6 C 1,1 C 91 % 997,0 hPa 0,0 l/m 0 min 0 min 0,0 UV-I 0 W/m 5,1 km/h (1 Bft)
04.03.2014 02:24 2,7 C 1,1 C 91 % 997,0 hPa 0,0 l/m 0 min 0 min 0,0 UV-I 0 W/m 2,6 km/h (1 Bft)
04.03.2014 02:26 2,7 C 1,1 C 91 % 997,0 hPa 0,0 l/m 0 min 0 min 0,0 UV-I 0 W/m 5,1 km/h (1 Bft)
04.03.2014 02:28 2,7 C 1,1 C 91 % 997,0 hPa 0,0 l/m 0 min 0 min 0,0 UV-I 0 W/m 0,0 km/h (0 Bft)
04.03.2014 02:30 2,7 C 1,1 C 91 % 997,0 hPa 0,0 l/m 0 min 0 min 0,0 UV-I 0 W/m 0,0 km/h (0 Bft)
04.03.2014 02:32 2,6 C 1,1 C 91 % 997,1 hPa 0,0 l/m 0 min 0 min 0,0 UV-I 0 W/m 5,1 km/h (1 Bft)
04.03.2014 02:34 2,6 C 1,1 C 91 % 997,1 hPa 0,0 l/m 0 min 0 min 0,0 UV-I 0 W/m 10,3 km/h (2 Bft)
04.03.2014 02:36 2,6 C 1,1 C 91 % 997,2 hPa 0,0 l/m 0 min 0 min 0,0 UV-I 0 W/m 5,1 km/h (1 Bft)
04.03.2014 02:38 2,6 C 1,1 C 91 % 997,1 hPa 0,0 l/m 0 min 0 min 0,0 UV-I 0 W/m 0,0 km/h (0 Bft)
04.03.2014 02:40 2,6 C 1,1 C 91 % 997,2 hPa 0,0 l/m 0 min 0 min 0,0 UV-I 0 W/m 2,6 km/h (1 Bft)
04.03.2014 02:42 2,6 C 1,1 C 91 % 997,2 hPa 0,0 l/m 0 min 0 min 0,0 UV-I 0 W/m 5,1 km/h (1 Bft)
04.03.2014 02:44 2,6 C 1,1 C 91 % 997,1 hPa 0,0 l/m 0 min 0 min 0,0 UV-I 0 W/m 0,0 km/h (0 Bft)
04.03.2014 02:46 2,6 C 1,1 C 91 % 997,1 hPa 0,0 l/m 0 min 0 min 0,0 UV-I 0 W/m 0,0 km/h (0 Bft)
04.03.2014 02:48 2,5 C 1,1 C 91 % 997,2 hPa 0,0 l/m 0 min 0 min 0,0 UV-I 0 W/m 2,6 km/h (1 Bft)
04.03.2014 02:50 2,5 C 1,1 C 91 % 997,1 hPa 0,0 l/m 0 min 0 min 0,0 UV-I 0 W/m 0,0 km/h (0 Bft)
04.03.2014 02:52 2,5 C 1,1 C 91 % 997,2 hPa 0,0 l/m 0 min 0 min 0,0 UV-I 0 W/m 0,0 km/h (0 Bft)
04.03.2014 02:54 2,4 C 0,6 C 91 % 997,2 hPa 0,0 l/m 0 min 0 min 0,0 UV-I 0 W/m 0,0 km/h (0 Bft)
04.03.2014 02:56 2,4 C 0,6 C 91 % 997,2 hPa 0,0 l/m 0 min 0 min 0,0 UV-I 0 W/m 0,0 km/h (0 Bft)
04.03.2014 02:58 2,4 C 0,6 C 91 % 997,3 hPa 0,0 l/m 0 min 0 min 0,0 UV-I 0 W/m 0,0 km/h (0 Bft)
04.03.2014 03:00 2,5 C 0,6 C 91 % 997,3 hPa 0,0 l/m 0 min 0 min 0,0 UV-I 0 W/m 0,0 km/h (0 Bft)
04.03.2014 03:02 2,5 C 0,6 C 91 % 997,3 hPa 0,0 l/m 0 min 0 min 0,0 UV-I 0 W/m 0,0 km/h (0 Bft)
04.03.2014 03:04 2,4 C 0,6 C 91 % 997,3 hPa 0,0 l/m 0 min 0 min 0,0 UV-I 0 W/m 0,0 km/h (0 Bft)
04.03.2014 03:06 2,4 C 0,6 C 91 % 997,4 hPa 0,0 l/m 0 min 0 min 0,0 UV-I 0 W/m 2,6 km/h (1 Bft)
04.03.2014 03:08 2,4 C 0,6 C 91 % 997,4 hPa 0,0 l/m 0 min 0 min 0,0 UV-I 0 W/m 0,0 km/h (0 Bft)
04.03.2014 03:10 2,4 C 0,6 C 91 % 997,5 hPa 0,0 l/m 0 min 0 min 0,0 UV-I 0 W/m 0,0 km/h (0 Bft)
04.03.2014 03:12 2,4 C 0,6 C 91 % 997,5 hPa 0,0 l/m 0 min 0 min 0,0 UV-I 0 W/m 2,6 km/h (1 Bft)
04.03.2014 03:14 2,3 C 0,6 C 91 % 997,5 hPa 0,0 l/m 0 min 0 min 0,0 UV-I 0 W/m 5,1 km/h (1 Bft)
04.03.2014 03:16 2,3 C 0,6 C 91 % 997,5 hPa 0,0 l/m 0 min 0 min 0,0 UV-I 0 W/m 7,7 km/h (2 Bft)
04.03.2014 03:18 2,3 C 0,6 C 91 % 997,5 hPa 0,0 l/m 0 min 0 min 0,0 UV-I 0 W/m 7,7 km/h (2 Bft)
04.03.2014 03:20 2,3 C 0,6 C 91 % 997,6 hPa 0,0 l/m 0 min 0 min 0,0 UV-I 0 W/m 0,0 km/h (0 Bft)
04.03.2014 03:22 2,3 C 0,6 C 91 % 997,6 hPa 0,0 l/m 0 min 0 min 0,0 UV-I 0 W/m 0,0 km/h (0 Bft)
04.03.2014 03:24 2,3 C 0,6 C 91 % 997,6 hPa 0,0 l/m 0 min 0 min 0,0 UV-I 0 W/m 2,6 km/h (1 Bft)
04.03.2014 03:26 2,3 C 0,6 C 91 % 997,6 hPa 0,0 l/m 0 min 0 min 0,0 UV-I 0 W/m 7,7 km/h (2 Bft)
04.03.2014 03:28 2,3 C 0,6 C 91 % 997,6 hPa 0,0 l/m 0 min 0 min 0,0 UV-I 0 W/m 7,7 km/h (2 Bft)
04.03.2014 03:30 2,3 C 1,1 C 91 % 997,6 hPa 0,0 l/m 0 min 0 min 0,0 UV-I 0 W/m 7,7 km/h (2 Bft)
04.03.2014 03:32 2,3 C 1,1 C 91 % 997,7 hPa 0,0 l/m 0 min 0 min 0,0 UV-I 0 W/m 7,7 km/h (2 Bft)
04.03.2014 03:34 2,3 C 1,1 C 91 % 997,7 hPa 0,0 l/m 0 min 0 min 0,0 UV-I 0 W/m 2,6 km/h (1 Bft)
04.03.2014 03:36 2,3 C 1,1 C 91 % 997,7 hPa 0,0 l/m 0 min 0 min 0,0 UV-I 0 W/m 0,0 km/h (0 Bft)
04.03.2014 03:38 2,3 C 1,1 C 91 % 997,7 hPa 0,0 l/m 0 min 0 min 0,0 UV-I 0 W/m 2,6 km/h (1 Bft)
04.03.2014 03:40 2,3 C 1,1 C 91 % 997,7 hPa 0,0 l/m 0 min 0 min 0,0 UV-I 0 W/m 5,1 km/h (1 Bft)
04.03.2014 03:42 2,3 C 0,6 C 91 % 997,7 hPa 0,0 l/m 0 min 0 min 0,0 UV-I 0 W/m 0,0 km/h (0 Bft)
04.03.2014 03:44 2,3 C 0,6 C 91 % 997,8 hPa 0,0 l/m 0 min 0 min 0,0 UV-I 0 W/m 2,6 km/h (1 Bft)
04.03.2014 03:46 2,3 C 0,6 C 91 % 997,8 hPa 0,0 l/m 0 min 0 min 0,0 UV-I 0 W/m 0,0 km/h (0 Bft)
04.03.2014 03:48 2,3 C 0,6 C 91 % 997,9 hPa 0,0 l/m 0 min 0 min 0,0 UV-I 0 W/m 0,0 km/h (0 Bft)
04.03.2014 03:50 2,2 C 0,6 C 91 % 997,9 hPa 0,0 l/m 0 min 0 min 0,0 UV-I 0 W/m 0,0 km/h (0 Bft)
04.03.2014 03:52 2,2 C 0,6 C 91 % 997,9 hPa 0,0 l/m 0 min 0 min 0,0 UV-I 0 W/m 0,0 km/h (0 Bft)
04.03.2014 03:54 2,2 C 0,6 C 91 % 997,9 hPa 0,0 l/m 0 min 0 min 0,0 UV-I 0 W/m 0,0 km/h (0 Bft)
04.03.2014 03:56 2,2 C 0,6 C 91 % 997,9 hPa 0,0 l/m 0 min 0 min 0,0 UV-I 0 W/m 0,0 km/h (0 Bft)
04.03.2014 03:58 2,2 C 0,6 C 91 % 997,9 hPa 0,0 l/m 0 min 0 min 0,0 UV-I 0 W/m 0,0 km/h (0 Bft)
04.03.2014 04:00 2,1 C 0,6 C 91 % 997,9 hPa 0,0 l/m 0 min 0 min 0,0 UV-I 0 W/m 0,0 km/h (0 Bft)
04.03.2014 04:02 2,1 C 0,6 C 91 % 997,9 hPa 0,0 l/m 0 min 0 min 0,0 UV-I 0 W/m 0,0 km/h (0 Bft)
04.03.2014 04:04 2,0 C 0,6 C 91 % 998,0 hPa 0,0 l/m 0 min 0 min 0,0 UV-I 0 W/m 0,0 km/h (0 Bft)
04.03.2014 04:06 1,9 C 0,6 C 91 % 998,0 hPa 0,0 l/m 0 min 0 min 0,0 UV-I 0 W/m 0,0 km/h (0 Bft)
04.03.2014 04:08 1,9 C 0,0 C 91 % 998,0 hPa 0,0 l/m 0 min 0 min 0,0 UV-I 0 W/m 0,0 km/h (0 Bft)
04.03.2014 04:10 1,9 C 0,0 C 91 % 998,0 hPa 0,0 l/m 0 min 0 min 0,0 UV-I 0 W/m 0,0 km/h (0 Bft)
04.03.2014 04:12 1,8 C 0,0 C 91 % 998,1 hPa 0,0 l/m 0 min 0 min 0,0 UV-I 0 W/m 0,0 km/h (0 Bft)
04.03.2014 04:14 1,8 C 0,0 C 91 % 998,1 hPa 0,0 l/m 0 min 0 min 0,0 UV-I 0 W/m 0,0 km/h (0 Bft)
04.03.2014 04:16 1,8 C 0,0 C 92 % 998,1 hPa 0,0 l/m 0 min 0 min 0,0 UV-I 0 W/m 0,0 km/h (0 Bft)
04.03.2014 04:18 1,8 C 0,0 C 92 % 998,1 hPa 0,0 l/m 0 min 0 min 0,0 UV-I 0 W/m 0,0 km/h (0 Bft)
04.03.2014 04:20 1,8 C 0,0 C 92 % 998,2 hPa 0,0 l/m 0 min 0 min 0,0 UV-I 0 W/m 0,0 km/h (0 Bft)
04.03.2014 04:22 1,9 C 0,0 C 92 % 998,3 hPa 0,0 l/m 0 min 0 min 0,0 UV-I 0 W/m 0,0 km/h (0 Bft)
04.03.2014 04:24 1,9 C 0,0 C 92 % 998,3 hPa 0,0 l/m 0 min 0 min 0,0 UV-I 0 W/m 0,0 km/h (0 Bft)
04.03.2014 04:26 1,8 C 0,0 C 92 % 998,3 hPa 0,0 l/m 0 min 0 min 0,0 UV-I 0 W/m 0,0 km/h (0 Bft)
04.03.2014 04:28 1,8 C 0,0 C 92 % 998,3 hPa 0,0 l/m 0 min 0 min 0,0 UV-I 0 W/m 0,0 km/h (0 Bft)
04.03.2014 04:30 1,8 C 0,0 C 92 % 998,4 hPa 0,0 l/m 0 min 0 min 0,0 UV-I 0 W/m 0,0 km/h (0 Bft)
04.03.2014 04:32 1,8 C 0,0 C 92 % 998,4 hPa 0,0 l/m 0 min 0 min 0,0 UV-I 0 W/m 0,0 km/h (0 Bft)
04.03.2014 04:34 1,8 C 0,0 C 92 % 998,4 hPa 0,0 l/m 0 min 0 min 0,0 UV-I 0 W/m 0,0 km/h (0 Bft)
04.03.2014 04:36 1,8 C 0,0 C 92 % 998,4 hPa 0,0 l/m 0 min 0 min 0,0 UV-I 0 W/m 0,0 km/h (0 Bft)
04.03.2014 04:38 1,8 C 0,0 C 92 % 998,5 hPa 0,0 l/m 0 min 0 min 0,0 UV-I 0 W/m 0,0 km/h (0 Bft)
04.03.2014 04:40 1,7 C 0,0 C 92 % 998,4 hPa 0,0 l/m 0 min 0 min 0,0 UV-I 0 W/m 0,0 km/h (0 Bft)
04.03.2014 04:42 1,7 C 0,0 C 92 % 998,5 hPa 0,0 l/m 0 min 0 min 0,0 UV-I 0 W/m 0,0 km/h (0 Bft)
04.03.2014 04:44 1,7 C 0,0 C 92 % 998,5 hPa 0,0 l/m 0 min 0 min 0,0 UV-I 0 W/m 0,0 km/h (0 Bft)
04.03.2014 04:46 1,7 C 0,0 C 92 % 998,6 hPa 0,0 l/m 0 min 0 min 0,0 UV-I 0 W/m 0,0 km/h (0 Bft)
04.03.2014 04:48 1,7 C 0,0 C 92 % 998,6 hPa 0,0 l/m 0 min 0 min 0,0 UV-I 0 W/m 0,0 km/h (0 Bft)
04.03.2014 04:50 1,7 C 0,0 C 92 % 998,6 hPa 0,0 l/m 0 min 0 min 0,0 UV-I 0 W/m 0,0 km/h (0 Bft)
04.03.2014 04:52 1,7 C 0,0 C 92 % 998,8 hPa 0,0 l/m 0 min 0 min 0,0 UV-I 0 W/m 0,0 km/h (0 Bft)
04.03.2014 04:54 1,7 C 0,0 C 92 % 998,9 hPa 0,0 l/m 0 min 0 min 0,0 UV-I 0 W/m 0,0 km/h (0 Bft)
04.03.2014 04:56 1,7 C 0,0 C 92 % 998,9 hPa 0,0 l/m 0 min 0 min 0,0 UV-I 0 W/m 0,0 km/h (0 Bft)
04.03.2014 04:58 1,7 C 0,0 C 92 % 998,9 hPa 0,0 l/m 0 min 0 min 0,0 UV-I 0 W/m 2,6 km/h (1 Bft)
04.03.2014 05:00 1,7 C 0,0 C 92 % 998,9 hPa 0,0 l/m 0 min 0 min 0,0 UV-I 0 W/m 0,0 km/h (0 Bft)
04.03.2014 05:02 1,7 C 0,0 C 92 % 999,0 hPa 0,0 l/m 0 min 0 min 0,0 UV-I 0 W/m 0,0 km/h (0 Bft)
04.03.2014 05:04 1,7 C 0,0 C 92 % 999,0 hPa 0,0 l/m 0 min 0 min 0,0 UV-I 0 W/m 0,0 km/h (0 Bft)
04.03.2014 05:06 1,7 C 0,0 C 93 % 999,0 hPa 0,0 l/m 0 min 0 min 0,0 UV-I 0 W/m 0,0 km/h (0 Bft)
04.03.2014 05:08 1,7 C 0,0 C 93 % 999,0 hPa 0,0 l/m 0 min 0 min 0,0 UV-I 0 W/m 5,1 km/h (1 Bft)
04.03.2014 05:10 1,7 C 0,0 C 93 % 999,0 hPa 0,0 l/m 0 min 0 min 0,0 UV-I 0 W/m 0,0 km/h (0 Bft)
04.03.2014 05:12 1,7 C 0,0 C 93 % 999,0 hPa 0,0 l/m 0 min 0 min 0,0 UV-I 0 W/m 0,0 km/h (0 Bft)
04.03.2014 05:14 1,7 C 0,0 C 93 % 999,1 hPa 0,0 l/m 0 min 0 min 0,0 UV-I 0 W/m 0,0 km/h (0 Bft)
04.03.2014 05:16 1,8 C 0,0 C 93 % 999,1 hPa 0,0 l/m 0 min 0 min 0,0 UV-I 0 W/m 2,6 km/h (1 Bft)
04.03.2014 05:18 1,8 C 0,0 C 93 % 999,1 hPa 0,0 l/m 0 min 0 min 0,0 UV-I 0 W/m 7,7 km/h (2 Bft)
04.03.2014 05:20 1,8 C 0,0 C 93 % 999,2 hPa 0,0 l/m 0 min 0 min 0,0 UV-I 0 W/m 0,0 km/h (0 Bft)
04.03.2014 05:22 1,8 C 0,0 C 93 % 999,2 hPa 0,0 l/m 0 min 0 min 0,0 UV-I 0 W/m 7,7 km/h (2 Bft)
04.03.2014 05:24 1,8 C 0,0 C 93 % 999,2 hPa 0,0 l/m 0 min 0 min 0,0 UV-I 0 W/m 5,1 km/h (1 Bft)
04.03.2014 05:26 1,8 C 0,0 C 93 % 999,3 hPa 0,0 l/m 0 min 0 min 0,0 UV-I 0 W/m 2,6 km/h (1 Bft)
04.03.2014 05:28 1,8 C 0,0 C 93 % 999,4 hPa 0,0 l/m 0 min 0 min 0,0 UV-I 0 W/m 7,7 km/h (2 Bft)
04.03.2014 05:30 1,8 C 0,0 C 93 % 999,4 hPa 0,0 l/m 0 min 0 min 0,0 UV-I 0 W/m 0,0 km/h (0 Bft)
04.03.2014 05:32 1,8 C 0,0 C 93 % 999,4 hPa 0,0 l/m 0 min 0 min 0,0 UV-I 0 W/m 0,0 km/h (0 Bft)
04.03.2014 05:34 1,8 C 0,0 C 93 % 999,4 hPa 0,0 l/m 0 min 0 min 0,0 UV-I 0 W/m 0,0 km/h (0 Bft)
04.03.2014 05:36 1,8 C 0,0 C 93 % 999,5 hPa 0,0 l/m 0 min 0 min 0,0 UV-I 0 W/m 0,0 km/h (0 Bft)
04.03.2014 05:38 1,8 C 0,0 C 93 % 999,5 hPa 0,0 l/m 0 min 0 min 0,0 UV-I 0 W/m 0,0 km/h (0 Bft)
04.03.2014 05:40 1,8 C 0,0 C 93 % 999,5 hPa 0,0 l/m 0 min 0 min 0,0 UV-I 0 W/m 0,0 km/h (0 Bft)
04.03.2014 05:42 1,7 C 0,0 C 92 % 999,5 hPa 0,0 l/m 0 min 0 min 0,0 UV-I 0 W/m 0,0 km/h (0 Bft)
04.03.2014 05:44 1,7 C 0,0 C 93 % 999,5 hPa 0,0 l/m 0 min 0 min 0,0 UV-I 0 W/m 0,0 km/h (0 Bft)
04.03.2014 05:46 1,7 C 0,0 C 93 % 999,5 hPa 0,0 l/m 0 min 0 min 0,0 UV-I 0 W/m 0,0 km/h (0 Bft)
04.03.2014 05:48 1,7 C 0,0 C 93 % 999,6 hPa 0,0 l/m 0 min 0 min 0,0 UV-I 0 W/m 0,0 km/h (0 Bft)
04.03.2014 05:50 1,7 C 0,0 C 93 % 999,6 hPa 0,0 l/m 0 min 0 min 0,0 UV-I 0 W/m 0,0 km/h (0 Bft)
04.03.2014 05:52 1,7 C 0,0 C 93 % 999,5 hPa 0,0 l/m 0 min 0 min 0,0 UV-I 0 W/m 0,0 km/h (0 Bft)
04.03.2014 05:54 1,6 C 0,0 C 93 % 999,6 hPa 0,0 l/m 0 min 0 min 0,0 UV-I 0 W/m 0,0 km/h (0 Bft)
04.03.2014 05:56 1,7 C 0,0 C 93 % 999,6 hPa 0,0 l/m 0 min 0 min 0,0 UV-I 0 W/m 0,0 km/h (0 Bft)
04.03.2014 05:58 1,7 C 0,0 C 93 % 999,5 hPa 0,0 l/m 0 min 0 min 0,0 UV-I 0 W/m 0,0 km/h (0 Bft)
04.03.2014 06:00 1,7 C 0,0 C 93 % 999,6 hPa 0,0 l/m 0 min 0 min 0,0 UV-I 0 W/m 0,0 km/h (0 Bft)
04.03.2014 06:02 1,6 C 0,0 C 93 % 999,6 hPa 0,0 l/m 0 min 0 min 0,0 UV-I 0 W/m 0,0 km/h (0 Bft)
04.03.2014 06:04 1,6 C 0,0 C 93 % 999,7 hPa 0,0 l/m 0 min 0 min 0,0 UV-I 0 W/m 0,0 km/h (0 Bft)
04.03.2014 06:06 1,6 C 0,0 C 93 % 999,7 hPa 0,0 l/m 0 min 0 min 0,0 UV-I 0 W/m 0,0 km/h (0 Bft)
04.03.2014 06:08 1,6 C 0,0 C 93 % 999,7 hPa 0,0 l/m 0 min 0 min 0,0 UV-I 0 W/m 0,0 km/h (0 Bft)
04.03.2014 06:10 1,5 C 0,0 C 93 % 999,7 hPa 0,0 l/m 0 min 0 min 0,0 UV-I 0 W/m 0,0 km/h (0 Bft)
04.03.2014 06:12 1,5 C 0,0 C 93 % 999,8 hPa 0,0 l/m 0 min 0 min 0,0 UV-I 0 W/m 0,0 km/h (0 Bft)
04.03.2014 06:14 1,5 C 0,0 C 93 % 999,8 hPa 0,0 l/m 0 min 0 min 0,0 UV-I 0 W/m 0,0 km/h (0 Bft)
04.03.2014 06:16 1,5 C 0,0 C 93 % 999,8 hPa 0,0 l/m 0 min 0 min 0,0 UV-I 0 W/m 2,6 km/h (1 Bft)
04.03.2014 06:18 1,5 C 0,0 C 93 % 999,8 hPa 0,0 l/m 0 min 0 min 0,0 UV-I 0 W/m 0,0 km/h (0 Bft)
04.03.2014 06:20 1,5 C 0,0 C 93 % 999,8 hPa 0,0 l/m 0 min 0 min 0,0 UV-I 0 W/m 0,0 km/h (0 Bft)
04.03.2014 06:22 1,5 C 0,0 C 93 % 999,8 hPa 0,0 l/m 0 min 0 min 0,0 UV-I 0 W/m 2,6 km/h (1 Bft)
04.03.2014 06:24 1,6 C 0,0 C 93 % 999,8 hPa 0,0 l/m 0 min 0 min 0,0 UV-I 0 W/m 0,0 km/h (0 Bft)
04.03.2014 06:26 1,5 C 0,0 C 93 % 999,8 hPa 0,0 l/m 0 min 0 min 0,0 UV-I 0 W/m 0,0 km/h (0 Bft)
04.03.2014 06:28 1,4 C -0,6 C 93 % 999,8 hPa 0,0 l/m 0 min 0 min 0,0 UV-I 0 W/m 0,0 km/h (0 Bft)
04.03.2014 06:30 1,4 C -0,6 C 93 % 999,8 hPa 0,0 l/m 0 min 0 min 0,0 UV-I 0 W/m 0,0 km/h (0 Bft)
04.03.2014 06:32 1,4 C -0,6 C 93 % 999,9 hPa 0,0 l/m 0 min 0 min 0,0 UV-I 0 W/m 0,0 km/h (0 Bft)
04.03.2014 06:34 1,3 C -0,6 C 93 % 999,9 hPa 0,0 l/m 0 min 0 min 0,0 UV-I 0 W/m 0,0 km/h (0 Bft)
04.03.2014 06:36 1,4 C -0,6 C 93 % 999,9 hPa 0,0 l/m 0 min 0 min 0,0 UV-I 0 W/m 2,6 km/h (1 Bft)
04.03.2014 06:38 1,4 C -0,6 C 93 % 999,9 hPa 0,0 l/m 0 min 0 min 0,0 UV-I 0 W/m 0,0 km/h (0 Bft)
04.03.2014 06:40 1,4 C 0,0 C 93 % 999,9 hPa 0,0 l/m 0 min 0 min 0,0 UV-I 0 W/m 0,0 km/h (0 Bft)
04.03.2014 06:42 1,4 C 0,0 C 93 % 999,9 hPa 0,0 l/m 0 min 0 min 0,0 UV-I 0 W/m 0,0 km/h (0 Bft)
04.03.2014 06:44 1,4 C -0,6 C 93 % 1000,0 hPa 0,0 l/m 0 min 0 min 0,0 UV-I 0 W/m 0,0 km/h (0 Bft)
04.03.2014 06:46 1,3 C -0,6 C 93 % 1000,0 hPa 0,0 l/m 0 min 0 min 0,0 UV-I 0 W/m 0,0 km/h (0 Bft)
04.03.2014 06:48 1,3 C -0,6 C 93 % 1000,1 hPa 0,0 l/m 0 min 0 min 0,0 UV-I 0 W/m 0,0 km/h (0 Bft)
04.03.2014 06:50 1,3 C -0,6 C 93 % 1000,1 hPa 0,0 l/m 0 min 0 min 0,0 UV-I 0 W/m 0,0 km/h (0 Bft)
04.03.2014 06:52 1,2 C -0,6 C 93 % 1000,1 hPa 0,0 l/m 0 min 0 min 0,0 UV-I 0 W/m 2,6 km/h (1 Bft)
04.03.2014 06:54 1,2 C -0,6 C 93 % 1000,1 hPa 0,0 l/m 0 min 0 min 0,0 UV-I 0 W/m 0,0 km/h (0 Bft)
04.03.2014 06:56 1,2 C -0,6 C 93 % 1000,1 hPa 0,0 l/m 0 min 0 min 0,0 UV-I 0 W/m 0,0 km/h (0 Bft)
04.03.2014 06:58 1,2 C -0,6 C 93 % 1000,1 hPa 0,0 l/m 0 min 0 min 0,0 UV-I 0 W/m 2,6 km/h (1 Bft)
04.03.2014 07:00 1,2 C -0,6 C 93 % 1000,2 hPa 0,0 l/m 0 min 0 min 0,0 UV-I 0 W/m 0,0 km/h (0 Bft)
04.03.2014 07:02 1,2 C -0,6 C 94 % 1000,2 hPa 0,0 l/m 0 min 0 min 0,0 UV-I 0 W/m 0,0 km/h (0 Bft)
04.03.2014 07:04 1,2 C -0,6 C 94 % 1000,2 hPa 0,0 l/m 0 min 0 min 0,0 UV-I 0 W/m 2,6 km/h (1 Bft)
04.03.2014 07:06 1,2 C -0,6 C 94 % 1000,2 hPa 0,0 l/m 0 min 0 min 0,0 UV-I 0 W/m 0,0 km/h (0 Bft)
04.03.2014 07:08 1,2 C -0,6 C 94 % 1000,3 hPa 0,0 l/m 0 min 0 min 0,0 UV-I 0 W/m 0,0 km/h (0 Bft)
04.03.2014 07:10 1,2 C -0,6 C 94 % 1000,2 hPa 0,0 l/m 0 min 0 min 0,0 UV-I 0 W/m 0,0 km/h (0 Bft)
04.03.2014 07:12 1,2 C -0,6 C 94 % 1000,3 hPa 0,0 l/m 0 min 0 min 0,0 UV-I 0 W/m 2,6 km/h (1 Bft)
04.03.2014 07:14 1,2 C -0,6 C 94 % 1000,3 hPa 0,0 l/m 0 min 0 min 0,0 UV-I 5 W/m 0,0 km/h (0 Bft)
04.03.2014 07:16 1,2 C -0,6 C 94 % 1000,3 hPa 0,0 l/m 0 min 0 min 0,0 UV-I 5 W/m 0,0 km/h (0 Bft)
04.03.2014 07:18 1,3 C 0,0 C 94 % 1000,3 hPa 0,0 l/m 0 min 0 min 0,0 UV-I 7 W/m 0,0 km/h (0 Bft)
04.03.2014 07:20 1,3 C 0,0 C 94 % 1000,4 hPa 0,0 l/m 0 min 0 min 0,0 UV-I 9 W/m 2,6 km/h (1 Bft)
04.03.2014 07:22 1,3 C 0,0 C 94 % 1000,4 hPa 0,0 l/m 0 min 0 min 0,0 UV-I 11 W/m 0,0 km/h (0 Bft)
04.03.2014 07:24 1,3 C 0,0 C 94 % 1000,4 hPa 0,0 l/m 0 min 0 min 0,0 UV-I 11 W/m 0,0 km/h (0 Bft)
04.03.2014 07:26 1,3 C 0,0 C 94 % 1000,5 hPa 0,0 l/m 0 min 0 min 0,0 UV-I 14 W/m 0,0 km/h (0 Bft)
04.03.2014 07:28 1,3 C 0,0 C 94 % 1000,5 hPa 0,0 l/m 0 min 0 min 0,0 UV-I 16 W/m 5,1 km/h (1 Bft)
04.03.2014 07:30 1,3 C 0,0 C 94 % 1000,6 hPa 0,0 l/m 0 min 0 min 0,0 UV-I 18 W/m 0,0 km/h (0 Bft)
04.03.2014 07:32 1,3 C 0,0 C 94 % 1000,6 hPa 0,0 l/m 0 min 0 min 0,0 UV-I 19 W/m 0,0 km/h (0 Bft)
04.03.2014 07:34 1,3 C 0,0 C 94 % 1000,6 hPa 0,0 l/m 0 min 0 min 0,0 UV-I 23 W/m 0,0 km/h (0 Bft)
04.03.2014 07:36 1,3 C 0,0 C 94 % 1000,6 hPa 0,0 l/m 0 min 0 min 0,0 UV-I 26 W/m 7,7 km/h (2 Bft)
04.03.2014 07:38 1,3 C 0,0 C 94 % 1000,6 hPa 0,0 l/m 0 min 0 min 0,0 UV-I 28 W/m 5,1 km/h (1 Bft)
04.03.2014 07:40 1,3 C 0,0 C 94 % 1000,7 hPa 0,0 l/m 0 min 0 min 0,0 UV-I 30 W/m 5,1 km/h (1 Bft)
04.03.2014 07:42 1,3 C 0,0 C 94 % 1000,7 hPa 0,0 l/m 0 min 0 min 0,0 UV-I 32 W/m 0,0 km/h (0 Bft)
04.03.2014 07:44 1,3 C 0,0 C 94 % 1000,8 hPa 0,0 l/m 0 min 0 min 0,0 UV-I 37 W/m 0,0 km/h (0 Bft)
04.03.2014 07:46 1,3 C 0,0 C 94 % 1000,9 hPa 0,0 l/m 2 min 0 min 0,0 UV-I 42 W/m 5,1 km/h (1 Bft)
04.03.2014 07:48 1,4 C 0,0 C 94 % 1000,9 hPa 0,0 l/m 2 min 0 min 0,0 UV-I 47 W/m 0,0 km/h (0 Bft)
04.03.2014 07:50 1,4 C 0,0 C 94 % 1000,9 hPa 0,0 l/m 0 min 0 min 0,0 UV-I 44 W/m 0,0 km/h (0 Bft)
04.03.2014 07:52 1,4 C 0,0 C 94 % 1001,0 hPa 0,0 l/m 0 min 0 min 0,0 UV-I 46 W/m 0,0 km/h (0 Bft)
04.03.2014 07:54 1,4 C 0,0 C 94 % 1001,0 hPa 0,0 l/m 0 min 0 min 0,0 UV-I 49 W/m 5,1 km/h (1 Bft)
04.03.2014 07:56 1,4 C 0,6 C 94 % 1001,0 hPa 0,0 l/m 0 min 0 min 0,0 UV-I 53 W/m 7,7 km/h (2 Bft)
04.03.2014 07:58 1,5 C 0,6 C 94 % 1001,0 hPa 0,0 l/m 0 min 0 min 0,0 UV-I 53 W/m 2,6 km/h (1 Bft)
04.03.2014 08:00 1,6 C 0,6 C 94 % 1001,0 hPa 0,0 l/m 0 min 0 min 0,0 UV-I 54 W/m 2,6 km/h (1 Bft)
04.03.2014 08:02 1,6 C 0,6 C 94 % 1001,2 hPa 0,0 l/m 0 min 0 min 0,0 UV-I 54 W/m 7,7 km/h (2 Bft)
04.03.2014 08:04 1,7 C 0,6 C 94 % 1001,2 hPa 0,0 l/m 0 min 0 min 0,0 UV-I 54 W/m 7,7 km/h (2 Bft)
04.03.2014 08:06 1,7 C 0,6 C 94 % 1001,3 hPa 0,0 l/m 0 min 0 min 0,0 UV-I 56 W/m 7,7 km/h (2 Bft)
04.03.2014 08:08 1,8 C 0,6 C 94 % 1001,3 hPa 0,0 l/m 0 min 0 min 0,0 UV-I 58 W/m 2,6 km/h (1 Bft)
04.03.2014 08:10 1,8 C 0,6 C 94 % 1001,3 hPa 0,0 l/m 0 min 0 min 0,0 UV-I 60 W/m 2,6 km/h (1 Bft)
04.03.2014 08:12 1,9 C 0,6 C 94 % 1001,3 hPa 0,0 l/m 0 min 0 min 0,0 UV-I 60 W/m 2,6 km/h (1 Bft)
04.03.2014 08:14 1,9 C 1,1 C 94 % 1001,3 hPa 0,0 l/m 0 min 0 min 0,0 UV-I 70 W/m 10,3 km/h (2 Bft)
04.03.2014 08:16 1,9 C 1,1 C 94 % 1001,3 hPa 0,0 l/m 2 min 0 min 0,0 UV-I 93 W/m 0,0 km/h (0 Bft)
04.03.2014 08:18 1,9 C 1,1 C 94 % 1001,4 hPa 0,0 l/m 2 min 0 min 0,0 UV-I 111 W/m 5,1 km/h (1 Bft)
04.03.2014 08:20 2,1 C 1,1 C 94 % 1001,4 hPa 0,0 l/m 2 min 0 min 0,0 UV-I 116 W/m 10,3 km/h (2 Bft)
04.03.2014 08:22 2,1 C 1,1 C 94 % 1001,4 hPa 0,0 l/m 2 min 0 min 0,0 UV-I 120 W/m 10,3 km/h (2 Bft)
04.03.2014 08:24 2,2 C 1,1 C 94 % 1001,4 hPa 0,0 l/m 2 min 0 min 0,0 UV-I 128 W/m 5,1 km/h (1 Bft)
04.03.2014 08:26 2,3 C 1,1 C 94 % 1001,4 hPa 0,0 l/m 2 min 0 min 0,0 UV-I 128 W/m 7,7 km/h (2 Bft)
04.03.2014 08:28 2,3 C 1,1 C 94 % 1001,4 hPa 0,0 l/m 2 min 0 min 0,0 UV-I 132 W/m 2,6 km/h (1 Bft)
04.03.2014 08:30 2,4 C 1,1 C 94 % 1001,4 hPa 0,0 l/m 2 min 0 min 0,0 UV-I 128 W/m 5,1 km/h (1 Bft)
04.03.2014 08:32 2,4 C 1,7 C 94 % 1001,5 hPa 0,0 l/m 2 min 0 min 0,0 UV-I 132 W/m 10,3 km/h (2 Bft)
04.03.2014 08:34 2,5 C 1,7 C 93 % 1001,5 hPa 0,0 l/m 2 min 0 min 0,0 UV-I 132 W/m 12,9 km/h (3 Bft)
04.03.2014 08:36 2,6 C 1,7 C 93 % 1001,5 hPa 0,0 l/m 2 min 0 min 0,0 UV-I 151 W/m 7,7 km/h (2 Bft)
04.03.2014 08:38 2,6 C 1,7 C 93 % 1001,6 hPa 0,0 l/m 2 min 0 min 0,0 UV-I 169 W/m 7,7 km/h (2 Bft)
04.03.2014 08:40 2,7 C 1,7 C 93 % 1001,6 hPa 0,0 l/m 2 min 0 min 0,0 UV-I 165 W/m 10,3 km/h (2 Bft)
04.03.2014 08:42 2,8 C 1,7 C 93 % 1001,6 hPa 0,0 l/m 2 min 0 min 0,0 UV-I 178 W/m 12,9 km/h (3 Bft)
04.03.2014 08:44 2,9 C 1,7 C 93 % 1001,6 hPa 0,0 l/m 2 min 0 min 0,0 UV-I 174 W/m 0,0 km/h (0 Bft)
04.03.2014 08:46 2,9 C 1,7 C 93 % 1001,7 hPa 0,0 l/m 2 min 0 min 0,0 UV-I 176 W/m 0,0 km/h (0 Bft)
04.03.2014 08:48 3,1 C 2,2 C 93 % 1001,7 hPa 0,0 l/m 2 min 0 min 0,0 UV-I 195 W/m 5,1 km/h (1 Bft)
04.03.2014 08:50 3,2 C 2,2 C 92 % 1001,6 hPa 0,0 l/m 2 min 0 min 0,0 UV-I 202 W/m 7,7 km/h (2 Bft)
04.03.2014 08:52 3,3 C 2,2 C 92 % 1001,6 hPa 0,0 l/m 2 min 0 min 0,0 UV-I 185 W/m 7,7 km/h (2 Bft)
04.03.2014 08:54 3,4 C 2,2 C 92 % 1001,6 hPa 0,0 l/m 2 min 0 min 0,0 UV-I 211 W/m 0,0 km/h (0 Bft)
04.03.2014 08:56 3,5 C 2,2 C 92 % 1001,6 hPa 0,0 l/m 2 min 0 min 0,0 UV-I 230 W/m 0,0 km/h (0 Bft)
04.03.2014 08:58 3,6 C 2,8 C 91 % 1001,7 hPa 0,0 l/m 2 min 0 min 0,0 UV-I 243 W/m 0,0 km/h (0 Bft)
04.03.2014 09:00 3,8 C 2,8 C 91 % 1001,7 hPa 0,0 l/m 2 min 0 min 0,0 UV-I 236 W/m 2,6 km/h (1 Bft)
04.03.2014 09:02 3,9 C 2,8 C 91 % 1001,7 hPa 0,0 l/m 2 min 0 min 0,0 UV-I 234 W/m 5,1 km/h (1 Bft)
04.03.2014 09:04 4,1 C 2,8 C 90 % 1001,7 hPa 0,0 l/m 2 min 0 min 0,0 UV-I 211 W/m 7,7 km/h (2 Bft)
04.03.2014 09:06 4,2 C 3,3 C 90 % 1001,7 hPa 0,0 l/m 2 min 0 min 0,0 UV-I 230 W/m 5,1 km/h (1 Bft)
04.03.2014 09:08 4,3 C 3,3 C 89 % 1001,7 hPa 0,0 l/m 2 min 0 min 0,0 UV-I 250 W/m 0,0 km/h (0 Bft)
04.03.2014 09:10 4,4 C 3,3 C 89 % 1001,7 hPa 0,0 l/m 2 min 0 min 0,0 UV-I 258 W/m 2,6 km/h (1 Bft)
04.03.2014 09:12 4,5 C 3,3 C 88 % 1001,8 hPa 0,0 l/m 2 min 0 min 0,0 UV-I 267 W/m 0,0 km/h (0 Bft)
04.03.2014 09:14 4,7 C 3,3 C 88 % 1001,8 hPa 0,0 l/m 2 min 0 min 0,0 UV-I 271 W/m 5,1 km/h (1 Bft)
04.03.2014 09:16 4,8 C 3,3 C 88 % 1001,8 hPa 0,0 l/m 2 min 0 min 0,0 UV-I 272 W/m 0,0 km/h (0 Bft)
04.03.2014 09:18 5,0 C 3,9 C 87 % 1001,8 hPa 0,0 l/m 2 min 0 min 0,0 UV-I 274 W/m 2,6 km/h (1 Bft)
04.03.2014 09:20 5,2 C 3,9 C 86 % 1001,8 hPa 0,0 l/m 2 min 0 min 0,0 UV-I 269 W/m 2,6 km/h (1 Bft)
04.03.2014 09:22 5,4 C 3,9 C 86 % 1001,8 hPa 0,0 l/m 2 min 0 min 0,0 UV-I 281 W/m 0,0 km/h (0 Bft)
04.03.2014 09:24 5,6 C 3,9 C 86 % 1001,9 hPa 0,0 l/m 2 min 0 min 0,0 UV-I 288 W/m 7,7 km/h (2 Bft)
04.03.2014 09:26 5,7 C 3,9 C 85 % 1002,0 hPa 0,0 l/m 2 min 0 min 0,0 UV-I 294 W/m 7,7 km/h (2 Bft)
04.03.2014 09:28 5,9 C 3,9 C 84 % 1002,0 hPa 0,0 l/m 2 min 0 min 0,0 UV-I 297 W/m 0,0 km/h (0 Bft)
04.03.2014 09:30 6,1 C 3,9 C 84 % 1001,9 hPa 0,0 l/m 2 min 0 min 0,0 UV-I 299 W/m 0,0 km/h (0 Bft)
04.03.2014 09:32 6,2 C 4,4 C 83 % 1002,0 hPa 0,0 l/m 2 min 0 min 0,0 UV-I 304 W/m 0,0 km/h (0 Bft)
04.03.2014 09:34 6,4 C 4,4 C 82 % 1001,9 hPa 0,0 l/m 2 min 0 min 0,0 UV-I 313 W/m 0,0 km/h (0 Bft)
04.03.2014 09:36 6,6 C 4,4 C 82 % 1001,9 hPa 0,0 l/m 2 min 0 min 0,0 UV-I 315 W/m 0,0 km/h (0 Bft)
04.03.2014 09:38 6,7 C 4,4 C 82 % 1002,0 hPa 0,0 l/m 2 min 0 min 0,0 UV-I 313 W/m 0,0 km/h (0 Bft)
04.03.2014 09:40 6,9 C 5,0 C 81 % 1002,0 hPa 0,0 l/m 2 min 0 min 0,0 UV-I 299 W/m 0,0 km/h (0 Bft)
04.03.2014 09:42 7,0 C 5,0 C 80 % 1002,0 hPa 0,0 l/m 2 min 0 min 0,0 UV-I 301 W/m 0,0 km/h (0 Bft)
04.03.2014 09:44 7,2 C 5,0 C 80 % 1002,1 hPa 0,0 l/m 2 min 0 min 0,0 UV-I 295 W/m 0,0 km/h (0 Bft)
04.03.2014 09:46 7,3 C 5,0 C 79 % 1002,1 hPa 0,0 l/m 2 min 0 min 0,0 UV-I 288 W/m 5,1 km/h (1 Bft)
04.03.2014 09:48 7,4 C 5,0 C 79 % 1002,1 hPa 0,0 l/m 2 min 0 min 0,0 UV-I 292 W/m 5,1 km/h (1 Bft)
04.03.2014 09:50 7,6 C 5,0 C 78 % 1002,2 hPa 0,0 l/m 2 min 0 min 0,0 UV-I 311 W/m 10,3 km/h (2 Bft)
04.03.2014 09:52 7,6 C 5,6 C 77 % 1002,2 hPa 0,0 l/m 2 min 0 min 0,0 UV-I 290 W/m 10,3 km/h (2 Bft)
04.03.2014 09:54 7,7 C 5,6 C 77 % 1002,2 hPa 0,0 l/m 2 min 0 min 0,0 UV-I 278 W/m 7,7 km/h (2 Bft)
04.03.2014 09:56 7,8 C 5,6 C 77 % 1002,2 hPa 0,0 l/m 2 min 0 min 0,0 UV-I 283 W/m 2,6 km/h (1 Bft)
04.03.2014 09:58 7,8 C 5,6 C 77 % 1002,3 hPa 0,0 l/m 2 min 0 min 0,0 UV-I 287 W/m 0,0 km/h (0 Bft)
04.03.2014 10:00 7,7 C 5,6 C 76 % 1002,3 hPa 0,0 l/m 2 min 0 min 0,0 UV-I 295 W/m 2,6 km/h (1 Bft)
04.03.2014 10:02 7,7 C 5,6 C 76 % 1002,3 hPa 0,0 l/m 2 min 0 min 0,0 UV-I 301 W/m 2,6 km/h (1 Bft)
04.03.2014 10:04 7,8 C 6,1 C 77 % 1002,3 hPa 0,0 l/m 2 min 0 min 0,0 UV-I 302 W/m 0,0 km/h (0 Bft)
04.03.2014 10:06 7,9 C 6,1 C 76 % 1002,3 hPa 0,0 l/m 2 min 0 min 0,0 UV-I 299 W/m 0,0 km/h (0 Bft)
04.03.2014 10:08 7,9 C 6,1 C 76 % 1002,3 hPa 0,0 l/m 2 min 0 min 0,0 UV-I 295 W/m 0,0 km/h (0 Bft)
04.03.2014 10:10 8,1 C 6,1 C 77 % 1002,3 hPa 0,0 l/m 2 min 0 min 0,0 UV-I 302 W/m 2,6 km/h (1 Bft)
04.03.2014 10:12 8,1 C 6,1 C 76 % 1002,3 hPa 0,0 l/m 2 min 0 min 0,0 UV-I 297 W/m 0,0 km/h (0 Bft)
04.03.2014 10:14 8,1 C 6,7 C 76 % 1002,3 hPa 0,0 l/m 2 min 0 min 0,0 UV-I 288 W/m 0,0 km/h (0 Bft)
04.03.2014 10:16 8,3 C 6,7 C 76 % 1002,4 hPa 0,0 l/m 2 min 0 min 0,0 UV-I 306 W/m 0,0 km/h (0 Bft)
04.03.2014 10:18 8,3 C 6,7 C 75 % 1002,4 hPa 0,0 l/m 2 min 0 min 0,0 UV-I 318 W/m 2,6 km/h (1 Bft)
04.03.2014 10:20 8,3 C 6,7 C 75 % 1002,4 hPa 0,0 l/m 2 min 0 min 0,0 UV-I 313 W/m 0,0 km/h (0 Bft)
04.03.2014 10:22 8,3 C 6,7 C 76 % 1002,4 hPa 0,0 l/m 2 min 0 min 0,0 UV-I 316 W/m 0,0 km/h (0 Bft)
04.03.2014 10:24 8,3 C 6,7 C 76 % 1002,4 hPa 0,0 l/m 2 min 0 min 0,0 UV-I 343 W/m 0,0 km/h (0 Bft)
04.03.2014 10:26 8,4 C 6,7 C 77 % 1002,4 hPa 0,0 l/m 2 min 0 min 0,0 UV-I 362 W/m 12,9 km/h (3 Bft)
04.03.2014 10:28 8,5 C 7,2 C 76 % 1002,5 hPa 0,0 l/m 2 min 0 min 0,0 UV-I 378 W/m 0,0 km/h (0 Bft)
04.03.2014 10:30 8,5 C 7,2 C 76 % 1002,4 hPa 0,0 l/m 2 min 0 min 0,0 UV-I 385 W/m 0,0 km/h (0 Bft)
04.03.2014 10:32 8,6 C 7,2 C 76 % 1002,5 hPa 0,0 l/m 2 min 0 min 0,0 UV-I 383 W/m 0,0 km/h (0 Bft)
04.03.2014 10:34 8,6 C 7,2 C 76 % 1002,5 hPa 0,0 l/m 2 min 0 min 0,0 UV-I 403 W/m 0,0 km/h (0 Bft)
04.03.2014 10:36 8,8 C 7,2 C 77 % 1002,5 hPa 0,0 l/m 2 min 0 min 0,0 UV-I 396 W/m 0,0 km/h (0 Bft)
04.03.2014 10:38 8,9 C 7,2 C 76 % 1002,5 hPa 0,0 l/m 2 min 0 min 0,0 UV-I 394 W/m 0,0 km/h (0 Bft)
04.03.2014 10:40 8,9 C 7,8 C 76 % 1002,6 hPa 0,0 l/m 2 min 0 min 0,0 UV-I 415 W/m 0,0 km/h (0 Bft)
04.03.2014 10:42 8,8 C 7,8 C 75 % 1002,5 hPa 0,0 l/m 2 min 0 min 0,0 UV-I 422 W/m 2,6 km/h (1 Bft)
04.03.2014 10:44 8,8 C 7,8 C 76 % 1002,5 hPa 0,0 l/m 2 min 0 min 0,0 UV-I 432 W/m 0,0 km/h (0 Bft)
04.03.2014 10:46 8,9 C 7,8 C 77 % 1002,5 hPa 0,0 l/m 2 min 0 min 0,0 UV-I 434 W/m 2,6 km/h (1 Bft)
04.03.2014 10:48 8,8 C 7,8 C 76 % 1002,6 hPa 0,0 l/m 2 min 0 min 0,5 UV-I 436 W/m 5,1 km/h (1 Bft)
04.03.2014 10:50 8,8 C 7,8 C 76 % 1002,5 hPa 0,0 l/m 2 min 0 min 0,5 UV-I 438 W/m 5,1 km/h (1 Bft)
04.03.2014 10:52 8,9 C 7,8 C 76 % 1002,5 hPa 0,0 l/m 2 min 0 min 0,0 UV-I 410 W/m 2,6 km/h (1 Bft)
04.03.2014 10:54 8,9 C 7,8 C 76 % 1002,5 hPa 0,0 l/m 2 min 0 min 0,5 UV-I 436 W/m 0,0 km/h (0 Bft)
04.03.2014 10:56 8,9 C 7,8 C 76 % 1002,5 hPa 0,0 l/m 2 min 0 min 0,5 UV-I 434 W/m 0,0 km/h (0 Bft)
04.03.2014 10:58 9,1 C 7,8 C 76 % 1002,5 hPa 0,0 l/m 2 min 0 min 0,5 UV-I 415 W/m 0,0 km/h (0 Bft)
04.03.2014 11:00 9,2 C 7,8 C 76 % 1002,5 hPa 0,0 l/m 2 min 0 min 0,5 UV-I 404 W/m 2,6 km/h (1 Bft)
04.03.2014 11:02 9,2 C 7,8 C 75 % 1002,5 hPa 0,0 l/m 2 min 0 min 0,5 UV-I 445 W/m 2,6 km/h (1 Bft)
04.03.2014 11:04 9,2 C 7,8 C 75 % 1002,6 hPa 0,0 l/m 2 min 0 min 0,5 UV-I 420 W/m 10,3 km/h (2 Bft)
04.03.2014 11:06 9,2 C 8,3 C 76 % 1002,8 hPa 0,0 l/m 2 min 0 min 0,5 UV-I 394 W/m 2,6 km/h (1 Bft)
04.03.2014 11:08 9,3 C 8,3 C 76 % 1002,8 hPa 0,0 l/m 2 min 0 min 0,0 UV-I 366 W/m 2,6 km/h (1 Bft)
04.03.2014 11:10 9,4 C 8,3 C 76 % 1002,8 hPa 0,0 l/m 2 min 0 min 0,0 UV-I 334 W/m 0,0 km/h (0 Bft)
04.03.2014 11:12 9,4 C 8,3 C 75 % 1002,8 hPa 0,0 l/m 2 min 0 min 0,5 UV-I 373 W/m 2,6 km/h (1 Bft)
04.03.2014 11:14 9,3 C 8,3 C 75 % 1002,8 hPa 0,0 l/m 2 min 0 min 0,5 UV-I 406 W/m 0,0 km/h (0 Bft)
04.03.2014 11:16 9,4 C 8,3 C 75 % 1002,8 hPa 0,0 l/m 2 min 0 min 0,6 UV-I 429 W/m 0,0 km/h (0 Bft)
04.03.2014 11:18 9,4 C 8,3 C 75 % 1002,8 hPa 0,0 l/m 2 min 0 min 0,6 UV-I 422 W/m 0,0 km/h (0 Bft)
04.03.2014 11:20 9,4 C 8,3 C 75 % 1002,8 hPa 0,0 l/m 2 min 0 min 0,5 UV-I 380 W/m 5,1 km/h (1 Bft)
04.03.2014 11:22 9,5 C 8,3 C 76 % 1002,8 hPa 0,0 l/m 2 min 0 min 0,6 UV-I 424 W/m 0,0 km/h (0 Bft)
04.03.2014 11:24 9,6 C 8,3 C 75 % 1002,8 hPa 0,0 l/m 2 min 0 min 0,6 UV-I 431 W/m 2,6 km/h (1 Bft)
04.03.2014 11:26 9,6 C 8,3 C 75 % 1002,8 hPa 0,0 l/m 2 min 0 min 0,5 UV-I 425 W/m 12,9 km/h (3 Bft)
04.03.2014 11:28 9,7 C 8,9 C 75 % 1002,8 hPa 0,0 l/m 2 min 0 min 0,7 UV-I 462 W/m 2,6 km/h (1 Bft)
04.03.2014 11:30 9,9 C 8,9 C 74 % 1002,8 hPa 0,0 l/m 2 min 0 min 0,7 UV-I 480 W/m 0,0 km/h (0 Bft)
04.03.2014 11:32 10,0 C 8,9 C 74 % 1002,8 hPa 0,0 l/m 2 min 0 min 0,7 UV-I 452 W/m 0,0 km/h (0 Bft)
04.03.2014 11:34 9,8 C 8,9 C 73 % 1002,9 hPa 0,0 l/m 2 min 0 min 0,7 UV-I 468 W/m 7,7 km/h (2 Bft)
04.03.2014 11:36 9,9 C 8,9 C 75 % 1002,8 hPa 0,0 l/m 2 min 0 min 0,6 UV-I 455 W/m 2,6 km/h (1 Bft)
04.03.2014 11:38 9,9 C 8,9 C 74 % 1002,8 hPa 0,0 l/m 2 min 0 min 0,6 UV-I 387 W/m 0,0 km/h (0 Bft)
04.03.2014 11:40 9,9 C 8,9 C 73 % 1002,9 hPa 0,0 l/m 2 min 0 min 0,6 UV-I 439 W/m 2,6 km/h (1 Bft)
04.03.2014 11:42 9,9 C 8,9 C 73 % 1002,9 hPa 0,0 l/m 2 min 0 min 0,7 UV-I 482 W/m 10,3 km/h (2 Bft)
04.03.2014 11:44 10,1 C 8,9 C 74 % 1002,9 hPa 0,0 l/m 2 min 0 min 0,7 UV-I 508 W/m 2,6 km/h (1 Bft)
04.03.2014 11:46 10,3 C 8,9 C 74 % 1003,0 hPa 0,0 l/m 2 min 0 min 0,7 UV-I 515 W/m 7,7 km/h (2 Bft)
04.03.2014 11:48 10,3 C 9,4 C 73 % 1002,9 hPa 0,0 l/m 2 min 0 min 0,7 UV-I 513 W/m 12,9 km/h (3 Bft)
04.03.2014 11:50 10,3 C 9,4 C 72 % 1002,9 hPa 0,0 l/m 2 min 0 min 0,6 UV-I 434 W/m 5,1 km/h (1 Bft)
04.03.2014 11:52 10,3 C 9,4 C 73 % 1003,0 hPa 0,0 l/m 2 min 0 min 0,0 UV-I 448 W/m 2,6 km/h (1 Bft)
04.03.2014 11:54 10,4 C 9,4 C 73 % 1003,0 hPa 0,0 l/m 0 min 0 min 0,0 UV-I 171 W/m 0,0 km/h (0 Bft)
04.03.2014 11:56 10,3 C 9,4 C 73 % 1003,1 hPa 0,0 l/m 2 min 0 min 0,0 UV-I 357 W/m 7,7 km/h (2 Bft)
04.03.2014 11:58 10,3 C 9,4 C 73 % 1003,0 hPa 0,0 l/m 2 min 0 min 0,0 UV-I 357 W/m 5,1 km/h (1 Bft)
04.03.2014 12:00 10,4 C 9,4 C 73 % 1003,1 hPa 0,0 l/m 2 min 0 min 0,0 UV-I 403 W/m 2,6 km/h (1 Bft)
04.03.2014 12:02 10,3 C 9,4 C 73 % 1003,0 hPa 0,0 l/m 2 min 0 min 0,0 UV-I 496 W/m 2,6 km/h (1 Bft)
04.03.2014 12:04 10,3 C 9,4 C 74 % 1003,0 hPa 0,0 l/m 2 min 0 min 0,0 UV-I 496 W/m 7,7 km/h (2 Bft)
04.03.2014 12:06 10,4 C 9,4 C 73 % 1003,0 hPa 0,0 l/m 2 min 0 min 0,0 UV-I 506 W/m 10,3 km/h (2 Bft)
04.03.2014 12:08 10,4 C 9,4 C 73 % 1003,0 hPa 0,0 l/m 2 min 0 min 0,0 UV-I 494 W/m 5,1 km/h (1 Bft)
04.03.2014 12:10 10,4 C 9,4 C 73 % 1003,0 hPa 0,0 l/m 2 min 0 min 0,0 UV-I 517 W/m 10,3 km/h (2 Bft)
04.03.2014 12:12 10,4 C 9,4 C 74 % 1003,0 hPa 0,0 l/m 2 min 0 min 0,0 UV-I 446 W/m 5,1 km/h (1 Bft)
04.03.2014 12:14 10,4 C 9,4 C 73 % 1003,0 hPa 0,0 l/m 2 min 0 min 0,0 UV-I 473 W/m 7,7 km/h (2 Bft)
04.03.2014 12:16 10,4 C 9,4 C 73 % 1003,0 hPa 0,0 l/m 2 min 0 min 0,0 UV-I 445 W/m 18,0 km/h (3 Bft)
04.03.2014 12:18 10,5 C 9,4 C 73 % 1003,0 hPa 0,0 l/m 2 min 0 min 0,0 UV-I 397 W/m 7,7 km/h (2 Bft)
04.03.2014 12:20 10,6 C 9,4 C 73 % 1003,0 hPa 0,0 l/m 2 min 0 min 0,0 UV-I 413 W/m 7,7 km/h (2 Bft)
04.03.2014 12:22 10,6 C 9,4 C 73 % 1003,1 hPa 0,0 l/m 2 min 0 min 0,0 UV-I 424 W/m 2,6 km/h (1 Bft)
04.03.2014 12:24 10,8 C 9,4 C 73 % 1003,1 hPa 0,0 l/m 2 min 0 min 0,0 UV-I 424 W/m 5,1 km/h (1 Bft)
04.03.2014 12:26 10,8 C 9,4 C 72 % 1003,1 hPa 0,0 l/m 2 min 0 min 0,0 UV-I 489 W/m 7,7 km/h (2 Bft)
04.03.2014 12:28 10,8 C 9,4 C 71 % 1003,1 hPa 0,0 l/m 2 min 0 min 0,0 UV-I 510 W/m 5,1 km/h (1 Bft)
04.03.2014 12:30 10,8 C 9,4 C 72 % 1003,2 hPa 0,0 l/m 2 min 0 min 0,0 UV-I 529 W/m 12,9 km/h (3 Bft)
04.03.2014 12:32 10,7 C 9,4 C 71 % 1003,2 hPa 0,0 l/m 2 min 0 min 0,0 UV-I 529 W/m 7,7 km/h (2 Bft)
04.03.2014 12:34 10,9 C 10,0 C 74 % 1003,1 hPa 0,0 l/m 2 min 0 min 0,0 UV-I 596 W/m 0,0 km/h (0 Bft)
04.03.2014 12:36 11,2 C 10,0 C 72 % 1003,1 hPa 0,0 l/m 2 min 0 min 0,0 UV-I 517 W/m 2,6 km/h (1 Bft)
04.03.2014 12:38 11,1 C 10,0 C 71 % 1003,1 hPa 0,0 l/m 2 min 0 min 0,0 UV-I 476 W/m 5,1 km/h (1 Bft)
04.03.2014 12:40 11,0 C 10,0 C 71 % 1003,1 hPa 0,0 l/m 2 min 0 min 0,5 UV-I 510 W/m 10,3 km/h (2 Bft)
04.03.2014 12:42 10,9 C 10,0 C 70 % 1003,1 hPa 0,0 l/m 2 min 0 min 0,5 UV-I 510 W/m 15,4 km/h (3 Bft)
04.03.2014 12:44 10,8 C 9,4 C 71 % 1003,1 hPa 0,0 l/m 0 min 0 min 0,0 UV-I 148 W/m 5,1 km/h (1 Bft)
04.03.2014 12:46 10,6 C 9,4 C 71 % 1003,1 hPa 0,0 l/m 0 min 0 min 0,7 UV-I 148 W/m 7,7 km/h (2 Bft)
04.03.2014 12:48 10,6 C 10,0 C 72 % 1003,2 hPa 0,0 l/m 2 min 0 min 0,7 UV-I 454 W/m 7,7 km/h (2 Bft)
04.03.2014 12:50 10,6 C 10,0 C 72 % 1003,2 hPa 0,0 l/m 0 min 0 min 0,0 UV-I 171 W/m 7,7 km/h (2 Bft)
04.03.2014 12:52 10,4 C 9,4 C 71 % 1003,2 hPa 0,0 l/m 0 min 0 min 0,0 UV-I 183 W/m 2,6 km/h (1 Bft)
04.03.2014 12:54 10,3 C 9,4 C 72 % 1003,2 hPa 0,0 l/m 0 min 0 min 0,0 UV-I 214 W/m 2,6 km/h (1 Bft)
04.03.2014 12:56 10,3 C 9,4 C 72 % 1003,2 hPa 0,0 l/m 2 min 0 min 0,9 UV-I 469 W/m 2,6 km/h (1 Bft)
04.03.2014 12:58 10,4 C 9,4 C 71 % 1003,1 hPa 0,0 l/m 2 min 0 min 0,9 UV-I 487 W/m 7,7 km/h (2 Bft)
04.03.2014 13:00 10,4 C 9,4 C 71 % 1003,1 hPa 0,0 l/m 2 min 0 min 0,8 UV-I 490 W/m 18,0 km/h (3 Bft)
04.03.2014 13:02 10,7 C 10,0 C 71 % 1003,1 hPa 0,0 l/m 2 min 0 min 0,5 UV-I 473 W/m 12,9 km/h (3 Bft)
04.03.2014 13:04 10,8 C 9,4 C 71 % 1003,2 hPa 0,0 l/m 0 min 0 min 0,0 UV-I 192 W/m 7,7 km/h (2 Bft)
04.03.2014 13:06 10,6 C 9,4 C 70 % 1003,2 hPa 0,0 l/m 0 min 0 min 0,0 UV-I 199 W/m 2,6 km/h (1 Bft)
04.03.2014 13:08 10,6 C 9,4 C 71 % 1003,2 hPa 0,0 l/m 2 min 0 min 1,0 UV-I 613 W/m 0,0 km/h (0 Bft)
04.03.2014 13:10 10,7 C 10,0 C 72 % 1003,2 hPa 0,0 l/m 2 min 0 min 1,0 UV-I 647 W/m 0,0 km/h (0 Bft)
04.03.2014 13:12 10,8 C 10,0 C 70 % 1003,2 hPa 0,0 l/m 0 min 0 min 0,0 UV-I 160 W/m 15,4 km/h (3 Bft)
04.03.2014 13:14 10,7 C 10,0 C 70 % 1003,1 hPa 0,0 l/m 0 min 0 min 0,0 UV-I 155 W/m 15,4 km/h (3 Bft)
04.03.2014 13:16 10,7 C 9,4 C 71 % 1003,1 hPa 0,0 l/m 0 min 0 min 0,0 UV-I 174 W/m 7,7 km/h (2 Bft)
04.03.2014 13:18 10,6 C 10,0 C 72 % 1003,1 hPa 0,0 l/m 0 min 0 min 0,0 UV-I 234 W/m 0,0 km/h (0 Bft)
04.03.2014 13:20 10,6 C 10,0 C 72 % 1003,2 hPa 0,0 l/m 2 min 0 min 1,0 UV-I 633 W/m 7,7 km/h (2 Bft)
04.03.2014 13:22 10,8 C 10,0 C 72 % 1003,2 hPa 0,0 l/m 2 min 0 min 1,0 UV-I 606 W/m 5,1 km/h (1 Bft)
04.03.2014 13:24 11,2 C 10,6 C 71 % 1003,2 hPa 0,0 l/m 2 min 0 min 0,9 UV-I 497 W/m 7,7 km/h (2 Bft)
04.03.2014 13:26 11,4 C 10,6 C 69 % 1003,1 hPa 0,0 l/m 2 min 0 min 0,8 UV-I 499 W/m 12,9 km/h (3 Bft)
04.03.2014 13:28 11,4 C 10,6 C 68 % 1003,1 hPa 0,0 l/m 2 min 0 min 0,0 UV-I 499 W/m 7,7 km/h (2 Bft)
04.03.2014 13:30 11,4 C 10,6 C 67 % 1003,2 hPa 0,0 l/m 0 min 0 min 0,9 UV-I 172 W/m 12,9 km/h (3 Bft)
04.03.2014 13:32 11,4 C 10,6 C 68 % 1003,1 hPa 0,0 l/m 2 min 0 min 0,9 UV-I 580 W/m 10,3 km/h (2 Bft)
04.03.2014 13:34 11,4 C 10,6 C 68 % 1003,2 hPa 0,0 l/m 0 min 0 min 0,0 UV-I 206 W/m 7,7 km/h (2 Bft)
04.03.2014 13:36 11,4 C 10,6 C 68 % 1003,1 hPa 0,0 l/m 2 min 0 min 0,6 UV-I 631 W/m 5,1 km/h (1 Bft)
04.03.2014 13:38 11,5 C 10,6 C 67 % 1003,1 hPa 0,0 l/m 0 min 0 min 0,0 UV-I 188 W/m 2,6 km/h (1 Bft)
04.03.2014 13:40 11,4 C 10,6 C 67 % 1003,2 hPa 0,0 l/m 0 min 0 min 0,0 UV-I 204 W/m 10,3 km/h (2 Bft)
04.03.2014 13:42 11,3 C 10,6 C 67 % 1003,1 hPa 0,0 l/m 0 min 0 min 0,7 UV-I 257 W/m 2,6 km/h (1 Bft)
04.03.2014 13:44 11,3 C 10,6 C 68 % 1003,1 hPa 0,0 l/m 2 min 0 min 0,7 UV-I 462 W/m 7,7 km/h (2 Bft)
04.03.2014 13:46 11,4 C 10,6 C 69 % 1003,2 hPa 0,0 l/m 2 min 0 min 0,8 UV-I 573 W/m 2,6 km/h (1 Bft)
04.03.2014 13:48 11,7 C 11,1 C 67 % 1003,2 hPa 0,0 l/m 2 min 0 min 0,7 UV-I 462 W/m 15,4 km/h (3 Bft)
04.03.2014 13:50 11,8 C 11,1 C 65 % 1003,2 hPa 0,0 l/m 2 min 0 min 0,5 UV-I 462 W/m 7,7 km/h (2 Bft)
04.03.2014 13:52 11,7 C 11,1 C 65 % 1003,2 hPa 0,0 l/m 2 min 0 min 0,9 UV-I 596 W/m 10,3 km/h (2 Bft)
04.03.2014 13:54 11,9 C 11,1 C 66 % 1003,2 hPa 0,0 l/m 2 min 0 min 1,0 UV-I 636 W/m 5,1 km/h (1 Bft)
04.03.2014 13:56 12,1 C 11,1 C 66 % 1003,2 hPa 0,0 l/m 2 min 0 min 0,9 UV-I 563 W/m 18,0 km/h (3 Bft)
04.03.2014 13:58 12,1 C 11,1 C 62 % 1003,2 hPa 0,0 l/m 2 min 0 min 0,8 UV-I 471 W/m 5,1 km/h (1 Bft)
04.03.2014 14:00 12,1 C 11,1 C 63 % 1003,2 hPa 0,0 l/m 2 min 0 min 0,0 UV-I 487 W/m 15,4 km/h (3 Bft)
04.03.2014 14:02 11,9 C 10,6 C 65 % 1003,3 hPa 0,0 l/m 2 min 0 min 0,0 UV-I 304 W/m 10,3 km/h (2 Bft)
04.03.2014 14:04 11,7 C 10,6 C 66 % 1003,2 hPa 0,0 l/m 2 min 0 min 0,5 UV-I 387 W/m 12,9 km/h (3 Bft)
04.03.2014 14:06 11,5 C 10,6 C 65 % 1003,3 hPa 0,0 l/m 2 min 0 min 0,6 UV-I 434 W/m 12,9 km/h (3 Bft)
04.03.2014 14:08 11,6 C 10,6 C 65 % 1003,3 hPa 0,0 l/m 2 min 0 min 0,7 UV-I 517 W/m 5,1 km/h (1 Bft)
04.03.2014 14:10 11,8 C 10,6 C 66 % 1003,3 hPa 0,0 l/m 2 min 0 min 0,8 UV-I 536 W/m 10,3 km/h (2 Bft)
04.03.2014 14:12 11,8 C 10,6 C 63 % 1003,3 hPa 0,0 l/m 2 min 0 min 0,8 UV-I 568 W/m 15,4 km/h (3 Bft)
04.03.2014 14:14 11,9 C 10,6 C 63 % 1003,3 hPa 0,0 l/m 2 min 0 min 0,8 UV-I 561 W/m 12,9 km/h (3 Bft)
04.03.2014 14:16 11,9 C 10,6 C 62 % 1003,3 hPa 0,0 l/m 2 min 0 min 0,7 UV-I 415 W/m 20,6 km/h (4 Bft)
04.03.2014 14:18 11,8 C 10,6 C 61 % 1003,3 hPa 0,0 l/m 0 min 0 min 0,0 UV-I 132 W/m 10,3 km/h (2 Bft)
04.03.2014 14:20 11,5 C 10,0 C 61 % 1003,3 hPa 0,0 l/m 0 min 0 min 0,7 UV-I 148 W/m 10,3 km/h (2 Bft)
04.03.2014 14:22 11,4 C 10,6 C 64 % 1003,3 hPa 0,0 l/m 2 min 0 min 0,7 UV-I 517 W/m 12,9 km/h (3 Bft)
04.03.2014 14:24 11,6 C 10,6 C 63 % 1003,4 hPa 0,0 l/m 2 min 0 min 0,7 UV-I 508 W/m 15,4 km/h (3 Bft)
04.03.2014 14:26 11,6 C 10,6 C 62 % 1003,4 hPa 0,0 l/m 2 min 0 min 0,7 UV-I 506 W/m 18,0 km/h (3 Bft)
04.03.2014 14:28 11,6 C 10,6 C 62 % 1003,4 hPa 0,0 l/m 2 min 0 min 0,7 UV-I 490 W/m 0,0 km/h (0 Bft)
04.03.2014 14:30 11,7 C 10,6 C 61 % 1003,4 hPa 0,0 l/m 2 min 0 min 0,5 UV-I 487 W/m 12,9 km/h (3 Bft)
04.03.2014 14:32 11,7 C 10,6 C 62 % 1003,4 hPa 0,0 l/m 2 min 0 min 0,6 UV-I 457 W/m 18,0 km/h (3 Bft)
04.03.2014 14:34 11,7 C 10,6 C 61 % 1003,4 hPa 0,0 l/m 2 min 0 min 0,5 UV-I 397 W/m 10,3 km/h (2 Bft)
04.03.2014 14:36 11,7 C 10,0 C 62 % 1003,5 hPa 0,0 l/m 2 min 0 min 0,5 UV-I 443 W/m 12,9 km/h (3 Bft)
04.03.2014 14:38 11,6 C 10,0 C 62 % 1003,4 hPa 0,0 l/m 0 min 0 min 0,0 UV-I 109 W/m 12,9 km/h (3 Bft)
04.03.2014 14:40 11,4 C 10,0 C 64 % 1003,5 hPa 0,0 l/m 2 min 0 min 0,6 UV-I 450 W/m 5,1 km/h (1 Bft)
04.03.2014 14:42 11,5 C 10,0 C 63 % 1003,4 hPa 0,0 l/m 2 min 0 min 0,6 UV-I 454 W/m 0,0 km/h (0 Bft)
04.03.2014 14:44 11,6 C 10,6 C 63 % 1003,4 hPa 0,0 l/m 2 min 0 min 0,5 UV-I 424 W/m 10,3 km/h (2 Bft)
04.03.2014 14:46 11,7 C 10,6 C 63 % 1003,5 hPa 0,0 l/m 2 min 0 min 0,5 UV-I 418 W/m 10,3 km/h (2 Bft)
04.03.2014 14:48 11,7 C 10,0 C 63 % 1003,5 hPa 0,0 l/m 0 min 0 min 0,0 UV-I 114 W/m 12,9 km/h (3 Bft)
04.03.2014 14:50 11,6 C 10,0 C 64 % 1003,5 hPa 0,0 l/m 2 min 0 min 0,5 UV-I 457 W/m 2,6 km/h (1 Bft)
04.03.2014 14:52 11,7 C 10,6 C 63 % 1003,5 hPa 0,0 l/m 2 min 0 min 0,5 UV-I 452 W/m 10,3 km/h (2 Bft)
04.03.2014 14:54 11,7 C 10,0 C 63 % 1003,5 hPa 0,0 l/m 2 min 0 min 0,5 UV-I 415 W/m 5,1 km/h (1 Bft)
04.03.2014 14:56 11,7 C 10,0 C 63 % 1003,6 hPa 0,0 l/m 2 min 0 min 0,0 UV-I 411 W/m 10,3 km/h (2 Bft)
04.03.2014 14:58 11,6 C 10,0 C 65 % 1003,6 hPa 0,0 l/m 0 min 0 min 0,5 UV-I 91 W/m 5,1 km/h (1 Bft)
04.03.2014 15:00 11,5 C 10,0 C 64 % 1003,5 hPa 0,0 l/m 2 min 0 min 0,5 UV-I 448 W/m 2,6 km/h (1 Bft)
04.03.2014 15:02 11,5 C 10,0 C 64 % 1003,6 hPa 0,0 l/m 2 min 0 min 0,0 UV-I 461 W/m 12,9 km/h (3 Bft)
04.03.2014 15:04 11,5 C 10,0 C 64 % 1003,6 hPa 0,0 l/m 2 min 0 min 0,0 UV-I 439 W/m 5,1 km/h (1 Bft)
04.03.2014 15:06 11,6 C 10,0 C 65 % 1003,6 hPa 0,0 l/m 2 min 0 min 0,0 UV-I 432 W/m 7,7 km/h (2 Bft)
04.03.2014 15:08 11,6 C 10,0 C 64 % 1003,6 hPa 0,0 l/m 2 min 0 min 0,0 UV-I 438 W/m 12,9 km/h (3 Bft)
04.03.2014 15:10 11,6 C 10,0 C 64 % 1003,7 hPa 0,0 l/m 2 min 0 min 0,0 UV-I 446 W/m 10,3 km/h (2 Bft)
04.03.2014 15:12 11,5 C 10,0 C 65 % 1003,6 hPa 0,0 l/m 2 min 0 min 0,0 UV-I 422 W/m 10,3 km/h (2 Bft)
04.03.2014 15:14 11,4 C 10,0 C 63 % 1003,7 hPa 0,0 l/m 2 min 0 min 0,0 UV-I 450 W/m 10,3 km/h (2 Bft)
04.03.2014 15:16 11,4 C 10,0 C 63 % 1003,8 hPa 0,0 l/m 0 min 0 min 0,0 UV-I 127 W/m 15,4 km/h (3 Bft)
04.03.2014 15:18 11,2 C 10,0 C 64 % 1003,8 hPa 0,0 l/m 0 min 0 min 0,0 UV-I 134 W/m 5,1 km/h (1 Bft)
04.03.2014 15:20 11,1 C 9,4 C 64 % 1003,8 hPa 0,0 l/m 0 min 0 min 0,0 UV-I 148 W/m 12,9 km/h (3 Bft)
04.03.2014 15:22 11,0 C 9,4 C 64 % 1003,8 hPa 0,0 l/m 0 min 0 min 0,0 UV-I 142 W/m 10,3 km/h (2 Bft)
04.03.2014 15:24 10,9 C 9,4 C 64 % 1003,8 hPa 0,0 l/m 0 min 0 min 0,0 UV-I 160 W/m 10,3 km/h (2 Bft)
04.03.2014 15:26 10,8 C 9,4 C 63 % 1003,8 hPa 0,0 l/m 0 min 0 min 0,0 UV-I 155 W/m 7,7 km/h (2 Bft)
04.03.2014 15:28 10,7 C 9,4 C 63 % 1003,8 hPa 0,0 l/m 0 min 0 min 0,0 UV-I 167 W/m 12,9 km/h (3 Bft)
04.03.2014 15:30 10,7 C 9,4 C 65 % 1003,8 hPa 0,0 l/m 0 min 0 min 0,0 UV-I 139 W/m 15,4 km/h (3 Bft)
04.03.2014 15:32 10,8 C 9,4 C 66 % 1003,8 hPa 0,0 l/m 2 min 0 min 0,0 UV-I 221 W/m 5,1 km/h (1 Bft)
04.03.2014 15:34 10,9 C 9,4 C 66 % 1003,8 hPa 0,0 l/m 0 min 0 min 0,0 UV-I 153 W/m 5,1 km/h (1 Bft)
04.03.2014 15:36 10,9 C 9,4 C 65 % 1003,8 hPa 0,0 l/m 0 min 0 min 0,0 UV-I 139 W/m 5,1 km/h (1 Bft)
04.03.2014 15:38 10,9 C 9,4 C 65 % 1003,9 hPa 0,0 l/m 0 min 0 min 0,0 UV-I 141 W/m 10,3 km/h (2 Bft)
04.03.2014 15:40 10,9 C 9,4 C 66 % 1003,9 hPa 0,0 l/m 0 min 0 min 0,0 UV-I 156 W/m 18,0 km/h (3 Bft)
04.03.2014 15:42 10,8 C 9,4 C 65 % 1003,9 hPa 0,0 l/m 0 min 0 min 0,0 UV-I 185 W/m 12,9 km/h (3 Bft)
04.03.2014 15:44 10,8 C 10,0 C 66 % 1003,9 hPa 0,0 l/m 0 min 0 min 0,0 UV-I 181 W/m 15,4 km/h (3 Bft)
04.03.2014 15:46 10,9 C 10,0 C 67 % 1003,9 hPa 0,0 l/m 0 min 0 min 0,0 UV-I 172 W/m 0,0 km/h (0 Bft)
04.03.2014 15:48 10,9 C 10,0 C 66 % 1004,0 hPa 0,0 l/m 0 min 0 min 0,0 UV-I 127 W/m 2,6 km/h (1 Bft)
04.03.2014 15:50 10,9 C 9,4 C 65 % 1004,0 hPa 0,0 l/m 0 min 0 min 0,0 UV-I 137 W/m 12,9 km/h (3 Bft)
04.03.2014 15:52 10,8 C 9,4 C 65 % 1003,9 hPa 0,0 l/m 0 min 0 min 0,0 UV-I 149 W/m 0,0 km/h (0 Bft)
04.03.2014 15:54 10,7 C 9,4 C 65 % 1004,0 hPa 0,0 l/m 0 min 0 min 0,0 UV-I 167 W/m 7,7 km/h (2 Bft)
04.03.2014 15:56 10,7 C 10,0 C 65 % 1004,0 hPa 0,0 l/m 0 min 0 min 0,0 UV-I 183 W/m 7,7 km/h (2 Bft)
04.03.2014 15:58 10,7 C 10,0 C 65 % 1004,0 hPa 0,0 l/m 0 min 0 min 0,0 UV-I 169 W/m 10,3 km/h (2 Bft)
04.03.2014 16:00 10,7 C 10,0 C 65 % 1004,0 hPa 0,0 l/m 0 min 0 min 0,0 UV-I 155 W/m 7,7 km/h (2 Bft)
04.03.2014 16:02 10,7 C 10,0 C 65 % 1004,0 hPa 0,0 l/m 0 min 0 min 0,0 UV-I 135 W/m 7,7 km/h (2 Bft)
04.03.2014 16:04 10,8 C 10,0 C 65 % 1004,0 hPa 0,0 l/m 0 min 0 min 0,0 UV-I 123 W/m 10,3 km/h (2 Bft)
04.03.2014 16:06 10,7 C 9,4 C 65 % 1004,1 hPa 0,0 l/m 0 min 0 min 0,0 UV-I 114 W/m 12,9 km/h (3 Bft)
04.03.2014 16:08 10,7 C 9,4 C 66 % 1004,1 hPa 0,0 l/m 0 min 0 min 0,0 UV-I 116 W/m 12,9 km/h (3 Bft)
04.03.2014 16:10 10,7 C 9,4 C 66 % 1004,1 hPa 0,0 l/m 0 min 0 min 0,0 UV-I 118 W/m 10,3 km/h (2 Bft)
04.03.2014 16:12 10,6 C 9,4 C 67 % 1004,2 hPa 0,0 l/m 0 min 0 min 0,0 UV-I 118 W/m 5,1 km/h (1 Bft)
04.03.2014 16:14 10,6 C 9,4 C 66 % 1004,1 hPa 0,0 l/m 0 min 0 min 0,0 UV-I 120 W/m 5,1 km/h (1 Bft)
04.03.2014 16:16 10,7 C 9,4 C 67 % 1004,2 hPa 0,0 l/m 0 min 0 min 0,0 UV-I 125 W/m 0,0 km/h (0 Bft)
04.03.2014 16:18 10,7 C 9,4 C 67 % 1004,2 hPa 0,0 l/m 0 min 0 min 0,0 UV-I 130 W/m 0,0 km/h (0 Bft)
04.03.2014 16:20 10,7 C 9,4 C 67 % 1004,2 hPa 0,0 l/m 0 min 0 min 0,0 UV-I 116 W/m 2,6 km/h (1 Bft)
04.03.2014 16:22 10,6 C 9,4 C 67 % 1004,3 hPa 0,0 l/m 0 min 0 min 0,0 UV-I 123 W/m 0,0 km/h (0 Bft)
04.03.2014 16:24 10,7 C 10,0 C 68 % 1004,2 hPa 0,0 l/m 2 min 0 min 0,0 UV-I 302 W/m 2,6 km/h (1 Bft)
04.03.2014 16:26 10,8 C 10,0 C 66 % 1004,3 hPa 0,0 l/m 0 min 0 min 0,0 UV-I 125 W/m 2,6 km/h (1 Bft)
04.03.2014 16:28 10,8 C 10,0 C 67 % 1004,3 hPa 0,0 l/m 0 min 0 min 0,0 UV-I 114 W/m 2,6 km/h (1 Bft)
04.03.2014 16:30 10,8 C 9,4 C 66 % 1004,3 hPa 0,0 l/m 0 min 0 min 0,0 UV-I 113 W/m 5,1 km/h (1 Bft)
04.03.2014 16:32 10,8 C 10,0 C 66 % 1004,3 hPa 0,0 l/m 2 min 0 min 0,0 UV-I 274 W/m 7,7 km/h (2 Bft)
04.03.2014 16:34 10,9 C 10,0 C 66 % 1004,4 hPa 0,0 l/m 0 min 0 min 0,0 UV-I 137 W/m 7,7 km/h (2 Bft)
04.03.2014 16:36 10,9 C 10,0 C 66 % 1004,4 hPa 0,0 l/m 0 min 0 min 0,0 UV-I 118 W/m 5,1 km/h (1 Bft)
04.03.2014 16:38 10,9 C 10,0 C 65 % 1004,4 hPa 0,0 l/m 0 min 0 min 0,0 UV-I 95 W/m 5,1 km/h (1 Bft)
04.03.2014 16:40 10,9 C 10,0 C 66 % 1004,4 hPa 0,0 l/m 0 min 0 min 0,0 UV-I 84 W/m 2,6 km/h (1 Bft)
04.03.2014 16:42 10,9 C 9,4 C 65 % 1004,4 hPa 0,0 l/m 0 min 0 min 0,0 UV-I 74 W/m 10,3 km/h (2 Bft)
04.03.2014 16:44 10,8 C 9,4 C 65 % 1004,5 hPa 0,0 l/m 0 min 0 min 0,0 UV-I 70 W/m 15,4 km/h (3 Bft)
04.03.2014 16:46 10,7 C 9,4 C 65 % 1004,5 hPa 0,0 l/m 0 min 0 min 0,0 UV-I 69 W/m 10,3 km/h (2 Bft)
04.03.2014 16:48 10,7 C 9,4 C 66 % 1004,5 hPa 0,0 l/m 0 min 0 min 0,0 UV-I 62 W/m 2,6 km/h (1 Bft)
04.03.2014 16:50 10,7 C 9,4 C 66 % 1004,5 hPa 0,0 l/m 0 min 0 min 0,0 UV-I 58 W/m 0,0 km/h (0 Bft)
04.03.2014 16:52 10,6 C 9,4 C 67 % 1004,5 hPa 0,0 l/m 0 min 0 min 0,0 UV-I 56 W/m 0,0 km/h (0 Bft)
04.03.2014 16:54 10,6 C 9,4 C 67 % 1004,6 hPa 0,0 l/m 0 min 0 min 0,0 UV-I 46 W/m 5,1 km/h (1 Bft)
04.03.2014 16:56 10,6 C 8,9 C 67 % 1004,6 hPa 0,0 l/m 0 min 0 min 0,0 UV-I 70 W/m 10,3 km/h (2 Bft)
04.03.2014 16:58 10,5 C 8,9 C 67 % 1004,6 hPa 0,0 l/m 2 min 0 min 0,0 UV-I 125 W/m 7,7 km/h (2 Bft)
04.03.2014 17:00 10,5 C 8,9 C 66 % 1004,7 hPa 0,0 l/m 2 min 0 min 0,0 UV-I 113 W/m 7,7 km/h (2 Bft)
04.03.2014 17:02 10,6 C 9,4 C 66 % 1004,7 hPa 0,0 l/m 2 min 0 min 0,0 UV-I 118 W/m 5,1 km/h (1 Bft)
04.03.2014 17:04 10,6 C 9,4 C 66 % 1004,7 hPa 0,0 l/m 0 min 0 min 0,0 UV-I 84 W/m 12,9 km/h (3 Bft)
04.03.2014 17:06 10,6 C 9,4 C 65 % 1004,8 hPa 0,0 l/m 2 min 0 min 0,0 UV-I 158 W/m 10,3 km/h (2 Bft)
04.03.2014 17:08 10,6 C 9,4 C 65 % 1004,8 hPa 0,0 l/m 0 min 0 min 0,0 UV-I 84 W/m 12,9 km/h (3 Bft)
04.03.2014 17:10 10,6 C 9,4 C 64 % 1004,8 hPa 0,0 l/m 0 min 0 min 0,0 UV-I 84 W/m 15,4 km/h (3 Bft)
04.03.2014 17:12 10,6 C 9,4 C 64 % 1004,8 hPa 0,0 l/m 2 min 0 min 0,0 UV-I 98 W/m 2,6 km/h (1 Bft)
04.03.2014 17:14 10,5 C 9,4 C 64 % 1004,9 hPa 0,0 l/m 2 min 0 min 0,0 UV-I 95 W/m 2,6 km/h (1 Bft)
04.03.2014 17:16 10,5 C 9,4 C 64 % 1004,9 hPa 0,0 l/m 2 min 0 min 0,0 UV-I 93 W/m 2,6 km/h (1 Bft)
04.03.2014 17:18 10,6 C 9,4 C 64 % 1004,9 hPa 0,0 l/m 2 min 0 min 0,0 UV-I 98 W/m 0,0 km/h (0 Bft)
04.03.2014 17:20 10,5 C 9,4 C 63 % 1004,9 hPa 0,0 l/m 2 min 0 min 0,0 UV-I 88 W/m 0,0 km/h (0 Bft)
04.03.2014 17:22 10,5 C 9,4 C 64 % 1005,1 hPa 0,0 l/m 2 min 0 min 0,0 UV-I 88 W/m 0,0 km/h (0 Bft)
04.03.2014 17:24 10,5 C 8,9 C 65 % 1005,0 hPa 0,0 l/m 2 min 0 min 0,0 UV-I 86 W/m 0,0 km/h (0 Bft)
04.03.2014 17:26 10,4 C 8,9 C 65 % 1005,1 hPa 0,0 l/m 2 min 0 min 0,0 UV-I 81 W/m 2,6 km/h (1 Bft)
04.03.2014 17:28 10,4 C 8,9 C 65 % 1005,1 hPa 0,0 l/m 2 min 0 min 0,0 UV-I 72 W/m 7,7 km/h (2 Bft)
04.03.2014 17:30 10,4 C 8,9 C 65 % 1005,1 hPa 0,0 l/m 0 min 0 min 0,0 UV-I 62 W/m 2,6 km/h (1 Bft)
04.03.2014 17:32 10,3 C 8,9 C 66 % 1005,1 hPa 0,0 l/m 0 min 0 min 0,0 UV-I 56 W/m 0,0 km/h (0 Bft)
04.03.2014 17:34 10,2 C 8,9 C 67 % 1005,2 hPa 0,0 l/m 0 min 0 min 0,0 UV-I 53 W/m 2,6 km/h (1 Bft)
04.03.2014 17:36 10,1 C 8,9 C 66 % 1005,1 hPa 0,0 l/m 0 min 0 min 0,0 UV-I 44 W/m 2,6 km/h (1 Bft)
04.03.2014 17:38 10,1 C 8,3 C 65 % 1005,2 hPa 0,0 l/m 0 min 0 min 0,0 UV-I 40 W/m 10,3 km/h (2 Bft)
04.03.2014 17:40 9,9 C 8,3 C 66 % 1005,2 hPa 0,0 l/m 0 min 0 min 0,0 UV-I 37 W/m 7,7 km/h (2 Bft)
04.03.2014 17:42 9,9 C 8,3 C 67 % 1005,3 hPa 0,0 l/m 0 min 0 min 0,0 UV-I 33 W/m 5,1 km/h (1 Bft)
04.03.2014 17:44 9,8 C 8,3 C 67 % 1005,3 hPa 0,0 l/m 0 min 0 min 0,0 UV-I 30 W/m 0,0 km/h (0 Bft)
04.03.2014 17:46 9,7 C 8,3 C 67 % 1005,3 hPa 0,0 l/m 0 min 0 min 0,0 UV-I 28 W/m 7,7 km/h (2 Bft)
04.03.2014 17:48 9,7 C 7,8 C 68 % 1005,3 hPa 0,0 l/m 0 min 0 min 0,0 UV-I 25 W/m 12,9 km/h (3 Bft)
04.03.2014 17:50 9,6 C 7,8 C 68 % 1005,4 hPa 0,0 l/m 0 min 0 min 0,0 UV-I 23 W/m 0,0 km/h (0 Bft)
04.03.2014 17:52 9,6 C 7,8 C 69 % 1005,5 hPa 0,0 l/m 0 min 0 min 0,0 UV-I 21 W/m 0,0 km/h (0 Bft)
04.03.2014 17:54 9,5 C 7,8 C 69 % 1005,5 hPa 0,0 l/m 0 min 0 min 0,0 UV-I 16 W/m 0,0 km/h (0 Bft)
04.03.2014 17:56 9,4 C 7,8 C 69 % 1005,5 hPa 0,0 l/m 0 min 0 min 0,0 UV-I 12 W/m 0,0 km/h (0 Bft)
04.03.2014 17:58 9,4 C 7,8 C 69 % 1005,6 hPa 0,0 l/m 0 min 0 min 0,0 UV-I 12 W/m 0,0 km/h (0 Bft)
04.03.2014 18:00 9,4 C 7,2 C 69 % 1005,6 hPa 0,0 l/m 0 min 0 min 0,0 UV-I 11 W/m 0,0 km/h (0 Bft)
04.03.2014 18:02 9,3 C 7,2 C 69 % 1005,7 hPa 0,0 l/m 0 min 0 min 0,0 UV-I 11 W/m 0,0 km/h (0 Bft)
04.03.2014 18:04 9,3 C 7,2 C 70 % 1005,6 hPa 0,0 l/m 0 min 0 min 0,0 UV-I 11 W/m 0,0 km/h (0 Bft)
04.03.2014 18:06 9,2 C 7,2 C 70 % 1005,6 hPa 0,0 l/m 0 min 0 min 0,0 UV-I 9 W/m 0,0 km/h (0 Bft)
04.03.2014 18:08 9,2 C 7,2 C 70 % 1005,7 hPa 0,0 l/m 0 min 0 min 0,0 UV-I 9 W/m 0,0 km/h (0 Bft)
04.03.2014 18:10 9,2 C 7,2 C 70 % 1005,7 hPa 0,0 l/m 0 min 0 min 0,0 UV-I 9 W/m 0,0 km/h (0 Bft)
04.03.2014 18:12 9,2 C 7,2 C 71 % 1005,7 hPa 0,0 l/m 0 min 0 min 0,0 UV-I 7 W/m 0,0 km/h (0 Bft)
04.03.2014 18:14 9,1 C 7,2 C 71 % 1005,7 hPa 0,0 l/m 0 min 0 min 0,0 UV-I 7 W/m 0,0 km/h (0 Bft)
04.03.2014 18:16 9,1 C 7,2 C 71 % 1005,7 hPa 0,0 l/m 0 min 0 min 0,0 UV-I 5 W/m 0,0 km/h (0 Bft)
04.03.2014 18:18 9,0 C 6,7 C 71 % 1005,8 hPa 0,0 l/m 0 min 0 min 0,0 UV-I 5 W/m 0,0 km/h (0 Bft)
04.03.2014 18:20 8,9 C 7,2 C 71 % 1005,8 hPa 0,0 l/m 0 min 0 min 0,0 UV-I 0 W/m 0,0 km/h (0 Bft)
04.03.2014 18:22 8,9 C 6,7 C 72 % 1005,7 hPa 0,0 l/m 0 min 0 min 0,0 UV-I 0 W/m 0,0 km/h (0 Bft)
04.03.2014 18:24 8,9 C 6,7 C 72 % 1005,8 hPa 0,0 l/m 0 min 0 min 0,0 UV-I 0 W/m 0,0 km/h (0 Bft)
04.03.2014 18:26 8,9 C 6,7 C 72 % 1005,9 hPa 0,0 l/m 0 min 0 min 0,0 UV-I 0 W/m 0,0 km/h (0 Bft)
04.03.2014 18:28 8,8 C 6,7 C 72 % 1005,9 hPa 0,0 l/m 0 min 0 min 0,0 UV-I 0 W/m 0,0 km/h (0 Bft)
04.03.2014 18:30 8,8 C 6,7 C 72 % 1005,9 hPa 0,0 l/m 0 min 0 min 0,0 UV-I 0 W/m 0,0 km/h (0 Bft)
04.03.2014 18:32 8,7 C 6,7 C 73 % 1006,0 hPa 0,0 l/m 0 min 0 min 0,0 UV-I 0 W/m 0,0 km/h (0 Bft)
04.03.2014 18:34 8,7 C 6,1 C 73 % 1006,0 hPa 0,0 l/m 0 min 0 min 0,0 UV-I 0 W/m 0,0 km/h (0 Bft)
04.03.2014 18:36 8,6 C 6,1 C 73 % 1006,0 hPa 0,0 l/m 0 min 0 min 0,0 UV-I 0 W/m 0,0 km/h (0 Bft)
04.03.2014 18:38 8,6 C 6,1 C 73 % 1006,0 hPa 0,0 l/m 0 min 0 min 0,0 UV-I 0 W/m 0,0 km/h (0 Bft)
04.03.2014 18:40 8,5 C 6,1 C 74 % 1006,1 hPa 0,0 l/m 0 min 0 min 0,0 UV-I 0 W/m 0,0 km/h (0 Bft)
04.03.2014 18:42 8,5 C 6,1 C 74 % 1006,1 hPa 0,0 l/m 0 min 0 min 0,0 UV-I 0 W/m 0,0 km/h (0 Bft)
04.03.2014 18:44 8,4 C 6,1 C 74 % 1006,1 hPa 0,0 l/m 0 min 0 min 0,0 UV-I 0 W/m 0,0 km/h (0 Bft)
04.03.2014 18:46 8,4 C 6,1 C 74 % 1006,2 hPa 0,0 l/m 0 min 0 min 0,0 UV-I 0 W/m 0,0 km/h (0 Bft)
04.03.2014 18:48 8,4 C 6,1 C 74 % 1006,2 hPa 0,0 l/m 0 min 0 min 0,0 UV-I 0 W/m 5,1 km/h (1 Bft)
04.03.2014 18:50 8,5 C 6,7 C 74 % 1006,2 hPa 0,0 l/m 0 min 0 min 0,0 UV-I 0 W/m 0,0 km/h (0 Bft)
04.03.2014 18:52 8,5 C 6,7 C 75 % 1006,2 hPa 0,0 l/m 0 min 0 min 0,0 UV-I 0 W/m 0,0 km/h (0 Bft)
04.03.2014 18:54 8,5 C 6,7 C 75 % 1006,2 hPa 0,0 l/m 0 min 0 min 0,0 UV-I 0 W/m 0,0 km/h (0 Bft)
04.03.2014 18:56 8,5 C 6,7 C 75 % 1006,3 hPa 0,0 l/m 0 min 0 min 0,0 UV-I 0 W/m 0,0 km/h (0 Bft)
04.03.2014 18:58 8,5 C 6,7 C 75 % 1006,3 hPa 0,0 l/m 0 min 0 min 0,0 UV-I 0 W/m 0,0 km/h (0 Bft)
04.03.2014 19:00 8,4 C 6,1 C 75 % 1006,4 hPa 0,0 l/m 0 min 0 min 0,0 UV-I 0 W/m 0,0 km/h (0 Bft)
04.03.2014 19:02 8,4 C 6,1 C 75 % 1006,4 hPa 0,0 l/m 0 min 0 min 0,0 UV-I 0 W/m 0,0 km/h (0 Bft)
04.03.2014 19:04 8,4 C 6,1 C 75 % 1006,4 hPa 0,0 l/m 0 min 0 min 0,0 UV-I 0 W/m 0,0 km/h (0 Bft)
04.03.2014 19:06 8,3 C 6,1 C 76 % 1006,5 hPa 0,0 l/m 0 min 0 min 0,0 UV-I 0 W/m 0,0 km/h (0 Bft)
04.03.2014 19:08 8,3 C 6,1 C 76 % 1006,5 hPa 0,0 l/m 0 min 0 min 0,0 UV-I 0 W/m 0,0 km/h (0 Bft)
04.03.2014 19:10 8,2 C 6,1 C 76 % 1006,5 hPa 0,0 l/m 0 min 0 min 0,0 UV-I 0 W/m 0,0 km/h (0 Bft)
04.03.2014 19:12 8,2 C 6,1 C 76 % 1006,6 hPa 0,0 l/m 0 min 0 min 0,0 UV-I 0 W/m 0,0 km/h (0 Bft)
04.03.2014 19:14 8,2 C 5,6 C 76 % 1006,6 hPa 0,0 l/m 0 min 0 min 0,0 UV-I 0 W/m 0,0 km/h (0 Bft)
04.03.2014 19:16 8,1 C 5,6 C 77 % 1006,6 hPa 0,0 l/m 0 min 0 min 0,0 UV-I 0 W/m 0,0 km/h (0 Bft)
04.03.2014 19:18 8,1 C 5,6 C 77 % 1006,6 hPa 0,0 l/m 0 min 0 min 0,0 UV-I 0 W/m 0,0 km/h (0 Bft)
04.03.2014 19:20 8,1 C 5,6 C 77 % 1006,7 hPa 0,0 l/m 0 min 0 min 0,0 UV-I 0 W/m 0,0 km/h (0 Bft)
04.03.2014 19:22 8,1 C 5,6 C 77 % 1006,7 hPa 0,0 l/m 0 min 0 min 0,0 UV-I 0 W/m 0,0 km/h (0 Bft)
04.03.2014 19:24 8,1 C 5,6 C 77 % 1006,8 hPa 0,0 l/m 0 min 0 min 0,0 UV-I 0 W/m 0,0 km/h (0 Bft)
04.03.2014 19:26 8,0 C 5,6 C 77 % 1006,8 hPa 0,0 l/m 0 min 0 min 0,0 UV-I 0 W/m 0,0 km/h (0 Bft)
04.03.2014 19:28 8,0 C 5,6 C 77 % 1006,8 hPa 0,0 l/m 0 min 0 min 0,0 UV-I 0 W/m 0,0 km/h (0 Bft)
04.03.2014 19:30 8,0 C 5,6 C 77 % 1006,8 hPa 0,0 l/m 0 min 0 min 0,0 UV-I 0 W/m 5,1 km/h (1 Bft)
04.03.2014 19:32 8,0 C 5,6 C 77 % 1006,9 hPa 0,0 l/m 0 min 0 min 0,0 UV-I 0 W/m 0,0 km/h (0 Bft)
04.03.2014 19:34 8,0 C 5,6 C 77 % 1006,9 hPa 0,0 l/m 0 min 0 min 0,0 UV-I 0 W/m 0,0 km/h (0 Bft)
04.03.2014 19:36 7,9 C 5,6 C 77 % 1007,0 hPa 0,0 l/m 0 min 0 min 0,0 UV-I 0 W/m 0,0 km/h (0 Bft)
04.03.2014 19:38 7,9 C 5,6 C 77 % 1007,0 hPa 0,0 l/m 0 min 0 min 0,0 UV-I 0 W/m 0,0 km/h (0 Bft)
04.03.2014 19:40 7,9 C 5,6 C 77 % 1007,0 hPa 0,0 l/m 0 min 0 min 0,0 UV-I 0 W/m 0,0 km/h (0 Bft)
04.03.2014 19:42 7,8 C 5,6 C 77 % 1007,0 hPa 0,0 l/m 0 min 0 min 0,0 UV-I 0 W/m 0,0 km/h (0 Bft)
04.03.2014 19:44 7,8 C 5,0 C 77 % 1007,0 hPa 0,0 l/m 0 min 0 min 0,0 UV-I 0 W/m 0,0 km/h (0 Bft)
04.03.2014 19:46 7,7 C 5,0 C 77 % 1007,0 hPa 0,0 l/m 0 min 0 min 0,0 UV-I 0 W/m 0,0 km/h (0 Bft)
04.03.2014 19:48 7,6 C 5,0 C 78 % 1007,0 hPa 0,0 l/m 0 min 0 min 0,0 UV-I 0 W/m 0,0 km/h (0 Bft)
04.03.2014 19:50 7,5 C 5,0 C 78 % 1007,1 hPa 0,0 l/m 0 min 0 min 0,0 UV-I 0 W/m 0,0 km/h (0 Bft)
04.03.2014 19:52 7,4 C 4,4 C 78 % 1007,2 hPa 0,0 l/m 0 min 0 min 0,0 UV-I 0 W/m 0,0 km/h (0 Bft)
04.03.2014 19:54 7,4 C 4,4 C 78 % 1007,2 hPa 0,0 l/m 0 min 0 min 0,0 UV-I 0 W/m 0,0 km/h (0 Bft)
04.03.2014 19:56 7,3 C 4,4 C 78 % 1007,2 hPa 0,0 l/m 0 min 0 min 0,0 UV-I 0 W/m 0,0 km/h (0 Bft)
04.03.2014 19:58 7,2 C 4,4 C 78 % 1007,3 hPa 0,0 l/m 0 min 0 min 0,0 UV-I 0 W/m 0,0 km/h (0 Bft)
04.03.2014 20:00 7,1 C 4,4 C 79 % 1007,3 hPa 0,0 l/m 0 min 0 min 0,0 UV-I 0 W/m 0,0 km/h (0 Bft)
04.03.2014 20:02 6,9 C 3,9 C 79 % 1007,4 hPa 0,0 l/m 0 min 0 min 0,0 UV-I 0 W/m 0,0 km/h (0 Bft)
04.03.2014 20:04 6,8 C 3,9 C 79 % 1007,3 hPa 0,0 l/m 0 min 0 min 0,0 UV-I 0 W/m 0,0 km/h (0 Bft)
04.03.2014 20:06 6,7 C 3,9 C 80 % 1007,5 hPa 0,0 l/m 0 min 0 min 0,0 UV-I 0 W/m 0,0 km/h (0 Bft)
04.03.2014 20:08 6,5 C 3,9 C 80 % 1007,5 hPa 0,0 l/m 0 min 0 min 0,0 UV-I 0 W/m 0,0 km/h (0 Bft)
04.03.2014 20:10 6,4 C 3,9 C 81 % 1007,5 hPa 0,0 l/m 0 min 0 min 0,0 UV-I 0 W/m 0,0 km/h (0 Bft)
04.03.2014 20:12 6,2 C 3,9 C 82 % 1007,5 hPa 0,0 l/m 0 min 0 min 0,0 UV-I 0 W/m 0,0 km/h (0 Bft)
04.03.2014 20:14 6,1 C 3,3 C 82 % 1007,5 hPa 0,0 l/m 0 min 0 min 0,0 UV-I 0 W/m 0,0 km/h (0 Bft)
04.03.2014 20:16 6,0 C 3,3 C 82 % 1007,5 hPa 0,0 l/m 0 min 0 min 0,0 UV-I 0 W/m 0,0 km/h (0 Bft)
04.03.2014 20:18 5,9 C 3,3 C 82 % 1007,5 hPa 0,0 l/m 0 min 0 min 0,0 UV-I 0 W/m 0,0 km/h (0 Bft)
04.03.2014 20:20 5,9 C 3,3 C 83 % 1007,5 hPa 0,0 l/m 0 min 0 min 0,0 UV-I 0 W/m 0,0 km/h (0 Bft)
04.03.2014 20:22 6,0 C 3,3 C 83 % 1007,5 hPa 0,0 l/m 0 min 0 min 0,0 UV-I 0 W/m 0,0 km/h (0 Bft)
04.03.2014 20:24 6,0 C 3,3 C 83 % 1007,4 hPa 0,0 l/m 0 min 0 min 0,0 UV-I 0 W/m 0,0 km/h (0 Bft)
04.03.2014 20:26 6,0 C 3,3 C 83 % 1007,5 hPa 0,0 l/m 0 min 0 min 0,0 UV-I 0 W/m 2,6 km/h (1 Bft)
04.03.2014 20:28 6,2 C 3,9 C 83 % 1007,5 hPa 0,0 l/m 0 min 0 min 0,0 UV-I 0 W/m 0,0 km/h (0 Bft)
04.03.2014 20:30 6,3 C 3,9 C 82 % 1007,5 hPa 0,0 l/m 0 min 0 min 0,0 UV-I 0 W/m 0,0 km/h (0 Bft)
04.03.2014 20:32 6,4 C 3,9 C 82 % 1007,5 hPa 0,0 l/m 0 min 0 min 0,0 UV-I 0 W/m 0,0 km/h (0 Bft)
04.03.2014 20:34 6,4 C 3,3 C 81 % 1007,6 hPa 0,0 l/m 0 min 0 min 0,0 UV-I 0 W/m 0,0 km/h (0 Bft)
04.03.2014 20:36 6,2 C 3,3 C 81 % 1007,6 hPa 0,0 l/m 0 min 0 min 0,0 UV-I 0 W/m 2,6 km/h (1 Bft)
04.03.2014 20:38 6,2 C 3,9 C 81 % 1007,6 hPa 0,0 l/m 0 min 0 min 0,0 UV-I 0 W/m 2,6 km/h (1 Bft)
04.03.2014 20:40 6,2 C 3,9 C 81 % 1007,7 hPa 0,0 l/m 0 min 0 min 0,0 UV-I 0 W/m 0,0 km/h (0 Bft)
04.03.2014 20:42 6,1 C 3,3 C 81 % 1007,7 hPa 0,0 l/m 0 min 0 min 0,0 UV-I 0 W/m 0,0 km/h (0 Bft)
04.03.2014 20:44 6,1 C 3,3 C 81 % 1007,7 hPa 0,0 l/m 0 min 0 min 0,0 UV-I 0 W/m 0,0 km/h (0 Bft)
04.03.2014 20:46 6,0 C 3,3 C 82 % 1007,7 hPa 0,0 l/m 0 min 0 min 0,0 UV-I 0 W/m 0,0 km/h (0 Bft)
04.03.2014 20:48 5,9 C 3,3 C 82 % 1007,8 hPa 0,0 l/m 0 min 0 min 0,0 UV-I 0 W/m 2,6 km/h (1 Bft)
04.03.2014 20:50 5,8 C 3,3 C 82 % 1007,8 hPa 0,0 l/m 0 min 0 min 0,0 UV-I 0 W/m 0,0 km/h (0 Bft)
04.03.2014 20:52 5,7 C 3,3 C 83 % 1007,8 hPa 0,0 l/m 0 min 0 min 0,0 UV-I 0 W/m 2,6 km/h (1 Bft)
04.03.2014 20:54 5,6 C 3,3 C 83 % 1007,8 hPa 0,0 l/m 0 min 0 min 0,0 UV-I 0 W/m 5,1 km/h (1 Bft)
04.03.2014 20:56 5,6 C 3,3 C 83 % 1007,9 hPa 0,0 l/m 0 min 0 min 0,0 UV-I 0 W/m 0,0 km/h (0 Bft)
04.03.2014 20:58 5,7 C 3,3 C 84 % 1007,9 hPa 0,0 l/m 0 min 0 min 0,0 UV-I 0 W/m 2,6 km/h (1 Bft)
04.03.2014 21:00 5,7 C 3,3 C 84 % 1007,9 hPa 0,0 l/m 0 min 0 min 0,0 UV-I 0 W/m 0,0 km/h (0 Bft)
04.03.2014 21:02 5,7 C 3,3 C 84 % 1007,9 hPa 0,0 l/m 0 min 0 min 0,0 UV-I 0 W/m 0,0 km/h (0 Bft)
04.03.2014 21:04 5,7 C 3,3 C 84 % 1008,0 hPa 0,0 l/m 0 min 0 min 0,0 UV-I 0 W/m 0,0 km/h (0 Bft)
04.03.2014 21:06 5,7 C 3,3 C 84 % 1008,0 hPa 0,0 l/m 0 min 0 min 0,0 UV-I 0 W/m 0,0 km/h (0 Bft)
04.03.2014 21:08 5,7 C 2,8 C 84 % 1007,9 hPa 0,0 l/m 0 min 0 min 0,0 UV-I 0 W/m 0,0 km/h (0 Bft)
04.03.2014 21:10 5,6 C 2,8 C 83 % 1008,0 hPa 0,0 l/m 0 min 0 min 0,0 UV-I 0 W/m 0,0 km/h (0 Bft)
04.03.2014 21:12 5,5 C 2,8 C 84 % 1008,0 hPa 0,0 l/m 0 min 0 min 0,0 UV-I 0 W/m 0,0 km/h (0 Bft)
04.03.2014 21:14 5,4 C 2,8 C 84 % 1008,0 hPa 0,0 l/m 0 min 0 min 0,0 UV-I 0 W/m 0,0 km/h (0 Bft)
04.03.2014 21:16 5,4 C 2,8 C 84 % 1008,1 hPa 0,0 l/m 0 min 0 min 0,0 UV-I 0 W/m 0,0 km/h (0 Bft)
04.03.2014 21:18 5,3 C 2,8 C 84 % 1008,1 hPa 0,0 l/m 0 min 0 min 0,0 UV-I 0 W/m 0,0 km/h (0 Bft)
04.03.2014 21:20 5,3 C 2,8 C 84 % 1008,1 hPa 0,0 l/m 0 min 0 min 0,0 UV-I 0 W/m 0,0 km/h (0 Bft)
04.03.2014 21:22 5,3 C 2,8 C 85 % 1008,2 hPa 0,0 l/m 0 min 0 min 0,0 UV-I 0 W/m 0,0 km/h (0 Bft)
04.03.2014 21:24 5,2 C 2,8 C 85 % 1008,2 hPa 0,0 l/m 0 min 0 min 0,0 UV-I 0 W/m 0,0 km/h (0 Bft)
04.03.2014 21:26 5,2 C 2,8 C 85 % 1008,2 hPa 0,0 l/m 0 min 0 min 0,0 UV-I 0 W/m 0,0 km/h (0 Bft)
04.03.2014 21:28 5,3 C 2,8 C 85 % 1008,2 hPa 0,0 l/m 0 min 0 min 0,0 UV-I 0 W/m 0,0 km/h (0 Bft)
04.03.2014 21:30 5,4 C 2,8 C 85 % 1008,2 hPa 0,0 l/m 0 min 0 min 0,0 UV-I 0 W/m 0,0 km/h (0 Bft)
04.03.2014 21:32 5,7 C 2,8 C 85 % 1008,2 hPa 0,0 l/m 0 min 0 min 0,0 UV-I 0 W/m 0,0 km/h (0 Bft)
04.03.2014 21:34 5,9 C 3,3 C 85 % 1008,2 hPa 0,0 l/m 0 min 0 min 0,0 UV-I 0 W/m 10,3 km/h (2 Bft)
04.03.2014 21:36 6,0 C 3,3 C 84 % 1008,3 hPa 0,0 l/m 0 min 0 min 0,0 UV-I 0 W/m 0,0 km/h (0 Bft)
04.03.2014 21:38 6,2 C 3,3 C 83 % 1008,3 hPa 0,0 l/m 0 min 0 min 0,0 UV-I 0 W/m 0,0 km/h (0 Bft)
04.03.2014 21:40 6,2 C 3,3 C 83 % 1008,3 hPa 0,0 l/m 0 min 0 min 0,0 UV-I 0 W/m 0,0 km/h (0 Bft)
04.03.2014 21:42 6,3 C 3,3 C 82 % 1008,3 hPa 0,0 l/m 0 min 0 min 0,0 UV-I 0 W/m 0,0 km/h (0 Bft)
04.03.2014 21:44 6,2 C 3,3 C 82 % 1008,3 hPa 0,0 l/m 0 min 0 min 0,0 UV-I 0 W/m 0,0 km/h (0 Bft)
04.03.2014 21:46 6,0 C 3,3 C 82 % 1008,5 hPa 0,0 l/m 0 min 0 min 0,0 UV-I 0 W/m 0,0 km/h (0 Bft)
04.03.2014 21:48 6,0 C 3,3 C 82 % 1008,4 hPa 0,0 l/m 0 min 0 min 0,0 UV-I 0 W/m 0,0 km/h (0 Bft)
04.03.2014 21:50 5,9 C 3,3 C 82 % 1008,5 hPa 0,0 l/m 0 min 0 min 0,0 UV-I 0 W/m 0,0 km/h (0 Bft)
04.03.2014 21:52 5,8 C 3,3 C 82 % 1008,5 hPa 0,0 l/m 0 min 0 min 0,0 UV-I 0 W/m 0,0 km/h (0 Bft)
04.03.2014 21:54 5,8 C 3,3 C 83 % 1008,6 hPa 0,0 l/m 0 min 0 min 0,0 UV-I 0 W/m 0,0 km/h (0 Bft)
04.03.2014 21:56 5,8 C 3,3 C 83 % 1008,6 hPa 0,0 l/m 0 min 0 min 0,0 UV-I 0 W/m 0,0 km/h (0 Bft)
04.03.2014 21:58 5,8 C 3,3 C 83 % 1008,6 hPa 0,0 l/m 0 min 0 min 0,0 UV-I 0 W/m 0,0 km/h (0 Bft)
04.03.2014 22:00 5,7 C 3,3 C 83 % 1008,6 hPa 0,0 l/m 0 min 0 min 0,0 UV-I 0 W/m 0,0 km/h (0 Bft)
04.03.2014 22:02 5,6 C 3,3 C 83 % 1008,6 hPa 0,0 l/m 0 min 0 min 0,0 UV-I 0 W/m 0,0 km/h (0 Bft)
04.03.2014 22:04 5,5 C 2,8 C 83 % 1008,6 hPa 0,0 l/m 0 min 0 min 0,0 UV-I 0 W/m 0,0 km/h (0 Bft)
04.03.2014 22:06 5,4 C 2,8 C 83 % 1008,7 hPa 0,0 l/m 0 min 0 min 0,0 UV-I 0 W/m 0,0 km/h (0 Bft)
04.03.2014 22:08 5,3 C 2,8 C 84 % 1008,7 hPa 0,0 l/m 0 min 0 min 0,0 UV-I 0 W/m 0,0 km/h (0 Bft)
04.03.2014 22:10 5,2 C 2,8 C 84 % 1008,7 hPa 0,0 l/m 0 min 0 min 0,0 UV-I 0 W/m 0,0 km/h (0 Bft)
04.03.2014 22:12 5,1 C 2,8 C 84 % 1008,6 hPa 0,0 l/m 0 min 0 min 0,0 UV-I 0 W/m 0,0 km/h (0 Bft)
04.03.2014 22:14 4,9 C 2,8 C 85 % 1008,7 hPa 0,0 l/m 0 min 0 min 0,0 UV-I 0 W/m 0,0 km/h (0 Bft)
04.03.2014 22:16 4,9 C 2,8 C 85 % 1008,6 hPa 0,0 l/m 0 min 0 min 0,0 UV-I 0 W/m 0,0 km/h (0 Bft)
04.03.2014 22:18 4,8 C 2,8 C 85 % 1008,6 hPa 0,0 l/m 0 min 0 min 0,0 UV-I 0 W/m 0,0 km/h (0 Bft)
04.03.2014 22:20 4,7 C 2,2 C 85 % 1008,6 hPa 0,0 l/m 0 min 0 min 0,0 UV-I 0 W/m 0,0 km/h (0 Bft)
04.03.2014 22:22 4,6 C 2,2 C 85 % 1008,7 hPa 0,0 l/m 0 min 0 min 0,0 UV-I 0 W/m 0,0 km/h (0 Bft)
04.03.2014 22:24 4,6 C 2,2 C 86 % 1008,7 hPa 0,0 l/m 0 min 0 min 0,0 UV-I 0 W/m 0,0 km/h (0 Bft)
04.03.2014 22:26 4,4 C 2,2 C 86 % 1008,7 hPa 0,0 l/m 0 min 0 min 0,0 UV-I 0 W/m 0,0 km/h (0 Bft)
04.03.2014 22:28 4,3 C 2,2 C 86 % 1008,8 hPa 0,0 l/m 0 min 0 min 0,0 UV-I 0 W/m 0,0 km/h (0 Bft)
04.03.2014 22:30 4,3 C 2,2 C 87 % 1008,8 hPa 0,0 l/m 0 min 0 min 0,0 UV-I 0 W/m 0,0 km/h (0 Bft)
04.03.2014 22:32 4,2 C 2,2 C 87 % 1008,8 hPa 0,0 l/m 0 min 0 min 0,0 UV-I 0 W/m 0,0 km/h (0 Bft)
04.03.2014 22:34 4,2 C 2,2 C 87 % 1008,8 hPa 0,0 l/m 0 min 0 min 0,0 UV-I 0 W/m 0,0 km/h (0 Bft)
04.03.2014 22:36 4,1 C 1,7 C 87 % 1008,8 hPa 0,0 l/m 0 min 0 min 0,0 UV-I 0 W/m 0,0 km/h (0 Bft)
04.03.2014 22:38 4,1 C 1,7 C 87 % 1008,8 hPa 0,0 l/m 0 min 0 min 0,0 UV-I 0 W/m 0,0 km/h (0 Bft)
04.03.2014 22:40 4,1 C 1,7 C 87 % 1008,8 hPa 0,0 l/m 0 min 0 min 0,0 UV-I 0 W/m 0,0 km/h (0 Bft)
04.03.2014 22:42 4,0 C 1,7 C 88 % 1008,8 hPa 0,0 l/m 0 min 0 min 0,0 UV-I 0 W/m 0,0 km/h (0 Bft)
04.03.2014 22:44 4,1 C 1,7 C 88 % 1008,8 hPa 0,0 l/m 0 min 0 min 0,0 UV-I 0 W/m 0,0 km/h (0 Bft)
04.03.2014 22:46 4,1 C 1,7 C 88 % 1008,9 hPa 0,0 l/m 0 min 0 min 0,0 UV-I 0 W/m 0,0 km/h (0 Bft)
04.03.2014 22:48 4,1 C 1,7 C 88 % 1008,9 hPa 0,0 l/m 0 min 0 min 0,0 UV-I 0 W/m 0,0 km/h (0 Bft)
04.03.2014 22:50 4,1 C 1,7 C 88 % 1008,9 hPa 0,0 l/m 0 min 0 min 0,0 UV-I 0 W/m 0,0 km/h (0 Bft)
04.03.2014 22:52 4,1 C 1,7 C 88 % 1008,9 hPa 0,0 l/m 0 min 0 min 0,0 UV-I 0 W/m 0,0 km/h (0 Bft)
04.03.2014 22:54 4,1 C 1,7 C 88 % 1008,9 hPa 0,0 l/m 0 min 0 min 0,0 UV-I 0 W/m 0,0 km/h (0 Bft)
04.03.2014 22:56 3,9 C 1,7 C 88 % 1009,0 hPa 0,0 l/m 0 min 0 min 0,0 UV-I 0 W/m 0,0 km/h (0 Bft)
04.03.2014 22:58 3,9 C 1,7 C 88 % 1009,0 hPa 0,0 l/m 0 min 0 min 0,0 UV-I 0 W/m 0,0 km/h (0 Bft)
04.03.2014 23:00 3,8 C 1,7 C 88 % 1009,1 hPa 0,0 l/m 0 min 0 min 0,0 UV-I 0 W/m 0,0 km/h (0 Bft)
04.03.2014 23:02 3,6 C 1,7 C 88 % 1009,1 hPa 0,0 l/m 0 min 0 min 0,0 UV-I 0 W/m 0,0 km/h (0 Bft)
04.03.2014 23:04 3,6 C 1,7 C 89 % 1009,1 hPa 0,0 l/m 0 min 0 min 0,0 UV-I 0 W/m 0,0 km/h (0 Bft)
04.03.2014 23:06 3,6 C 1,7 C 89 % 1009,1 hPa 0,0 l/m 0 min 0 min 0,0 UV-I 0 W/m 0,0 km/h (0 Bft)
04.03.2014 23:08 3,4 C 1,1 C 89 % 1009,2 hPa 0,0 l/m 0 min 0 min 0,0 UV-I 0 W/m 0,0 km/h (0 Bft)
04.03.2014 23:10 3,4 C 1,1 C 89 % 1009,1 hPa 0,0 l/m 0 min 0 min 0,0 UV-I 0 W/m 0,0 km/h (0 Bft)
04.03.2014 23:12 3,4 C 1,1 C 89 % 1009,2 hPa 0,0 l/m 0 min 0 min 0,0 UV-I 0 W/m 0,0 km/h (0 Bft)
04.03.2014 23:14 3,4 C 1,1 C 90 % 1009,3 hPa 0,0 l/m 0 min 0 min 0,0 UV-I 0 W/m 0,0 km/h (0 Bft)
04.03.2014 23:16 3,4 C 1,1 C 90 % 1009,3 hPa 0,0 l/m 0 min 0 min 0,0 UV-I 0 W/m 0,0 km/h (0 Bft)
04.03.2014 23:18 3,3 C 1,1 C 90 % 1009,4 hPa 0,0 l/m 0 min 0 min 0,0 UV-I 0 W/m 0,0 km/h (0 Bft)
04.03.2014 23:20 3,3 C 1,1 C 90 % 1009,4 hPa 0,0 l/m 0 min 0 min 0,0 UV-I 0 W/m 0,0 km/h (0 Bft)
04.03.2014 23:22 3,3 C 1,1 C 90 % 1009,4 hPa 0,0 l/m 0 min 0 min 0,0 UV-I 0 W/m 0,0 km/h (0 Bft)
04.03.2014 23:24 3,4 C 1,1 C 90 % 1009,5 hPa 0,0 l/m 0 min 0 min 0,0 UV-I 0 W/m 0,0 km/h (0 Bft)
04.03.2014 23:26 3,3 C 1,7 C 91 % 1009,5 hPa 0,0 l/m 0 min 0 min 0,0 UV-I 0 W/m 0,0 km/h (0 Bft)
04.03.2014 23:28 3,3 C 1,7 C 91 % 1009,5 hPa 0,0 l/m 0 min 0 min 0,0 UV-I 0 W/m 0,0 km/h (0 Bft)
04.03.2014 23:30 3,4 C 1,7 C 91 % 1009,6 hPa 0,0 l/m 0 min 0 min 0,0 UV-I 0 W/m 0,0 km/h (0 Bft)
04.03.2014 23:32 3,3 C 1,7 C 91 % 1009,6 hPa 0,0 l/m 0 min 0 min 0,0 UV-I 0 W/m 0,0 km/h (0 Bft)
04.03.2014 23:34 3,3 C 1,7 C 91 % 1009,7 hPa 0,0 l/m 0 min 0 min 0,0 UV-I 0 W/m 0,0 km/h (0 Bft)
04.03.2014 23:36 3,4 C 1,7 C 91 % 1009,7 hPa 0,0 l/m 0 min 0 min 0,0 UV-I 0 W/m 0,0 km/h (0 Bft)
04.03.2014 23:38 3,4 C 1,7 C 91 % 1009,7 hPa 0,0 l/m 0 min 0 min 0,0 UV-I 0 W/m 0,0 km/h (0 Bft)
04.03.2014 23:40 3,4 C 1,7 C 91 % 1009,7 hPa 0,0 l/m 0 min 0 min 0,0 UV-I 0 W/m 0,0 km/h (0 Bft)
04.03.2014 23:42 3,4 C 1,7 C 91 % 1009,8 hPa 0,0 l/m 0 min 0 min 0,0 UV-I 0 W/m 0,0 km/h (0 Bft)
04.03.2014 23:44 3,4 C 1,7 C 91 % 1009,8 hPa 0,0 l/m 0 min 0 min 0,0 UV-I 0 W/m 0,0 km/h (0 Bft)
04.03.2014 23:46 3,5 C 1,7 C 91 % 1009,8 hPa 0,0 l/m 0 min 0 min 0,0 UV-I 0 W/m 0,0 km/h (0 Bft)
04.03.2014 23:48 3,6 C 2,2 C 91 % 1009,9 hPa 0,0 l/m 0 min 0 min 0,0 UV-I 0 W/m 0,0 km/h (0 Bft)
04.03.2014 23:50 3,6 C 2,2 C 91 % 1009,9 hPa 0,0 l/m 0 min 0 min 0,0 UV-I 0 W/m 0,0 km/h (0 Bft)
04.03.2014 23:52 3,7 C 2,2 C 91 % 1009,9 hPa 0,0 l/m 0 min 0 min 0,0 UV-I 0 W/m 0,0 km/h (0 Bft)
04.03.2014 23:54 3,7 C 2,2 C 91 % 1010,0 hPa 0,0 l/m 0 min 0 min 0,0 UV-I 0 W/m 0,0 km/h (0 Bft)
04.03.2014 23:56 3,8 C 2,2 C 91 % 1010,0 hPa 0,0 l/m 0 min 0 min 0,0 UV-I 0 W/m 0,0 km/h (0 Bft)
04.03.2014 23:58 3,8 C 2,2 C 91 % 1010,0 hPa 0,0 l/m 0 min 0 min 0,0 UV-I 0 W/m 0,0 km/h (0 Bft)
_ Min-Zeit 06:50 06:28 14:18 00:00 - - - - - 00:14
Minimum _ 1,2 C -0,6 C 61 % 995,4 hPa - - - - - 0,0 km/h (0 Bft)
_ Max-Zeit 13:58 13:48 07:02 23:54 00:00 07:46 00:00 13:08 13:10 14:16
Maximum _ 12,2 C 11,1 C 94 % 1010,0 hPa 0,0 l/m 2 min 0 min 1,0 UV-I 647 W/m 20,6 km/h
W-SW (4 Bft)
Durchschnitt _ 6,1 C 4,5 C 81 % 1002,6 hPa #0,0 l/m #6:52 h #0 min. 0,7 UV-I 260 W/m 3,2 km/h (1 Bft)
© 2014 W. Hausmann